GFSSW_sfc_thetae_000.txt.gz
Theta_e
320 320 318 318 317 317 317 316 315 316 316 317 317 317 317 317 316 319 314 318 319 324 322 316 317 316 315 311 311 310 300 301 301 302 302 306 304 308 310 310 311 316 316 323 327
319 319 319 318 319 317 317 316 315 316 316 317 316 316 316 316 319 317 323 326 329 328 316 314 313 314 310 309 309 305 301 301 304 304 303 304 304 304 305 307 307 311 320 328 327
319 319 318 318 318 317 317 316 315 316 316 316 316 315 315 317 316 314 327 327 330 328 318 319 316 312 307 309 307 306 301 304 304 305 306 304 304 306 305 303 306 307 311 324 325
318 318 318 318 317 317 316 315 315 315 315 314 315 316 316 319 303 315 329 330 330 322 320 316 313 308 306 304 308 303 305 305 304 305 304 302 305 303 304 306 310 312 314 322 321
316 317 317 317 317 316 316 315 315 314 314 314 315 315 319 314 311 319 325 328 320 321 316 314 311 310 305 306 306 304 304 305 305 305 306 307 304 305 305 309 311 313 317 320 322
317 317 317 317 316 316 315 314 313 312 312 313 314 314 318 307 318 319 319 319 318 318 314 314 311 311 307 306 304 306 305 304 306 306 306 304 305 306 308 309 308 311 314 318 322
317 317 317 316 316 315 315 314 312 311 313 313 313 318 317 312 318 319 318 317 318 318 314 315 316 310 310 305 309 307 303 305 306 307 306 307 303 303 309 310 308 308 311 315 319
317 317 317 316 315 314 313 312 312 312 312 312 312 319 312 318 319 317 317 316 317 319 317 317 317 314 311 311 306 303 305 299 305 307 308 306 299 306 309 308 307 309 309 312 317
317 317 316 315 315 313 313 313 313 313 313 312 316 321 310 317 313 316 317 313 315 317 317 316 315 309 308 303 301 303 297 300 302 307 307 305 301 307 310 309 308 309 311 311 312
317 317 316 316 315 314 314 314 314 313 315 319 321 315 311 309 313 314 317 316 314 314 312 311 310 305 305 302 294 296 298 299 299 304 303 302 303 307 309 309 309 309 310 311 311
316 317 316 315 315 314 313 317 314 313 317 310 309 308 308 311 315 313 315 314 314 311 306 308 303 301 302 303 302 301 299 298 302 305 302 302 303 305 308 309 309 310 311 312 316
315 317 316 315 315 314 316 320 319 318 306 312 312 311 313 315 308 310 316 309 308 303 306 302 300 304 305 304 302 301 299 299 302 304 302 303 302 305 307 308 309 309 311 314 315
315 315 316 314 314 316 325 323 328 327 307 308 311 309 311 314 308 308 313 309 306 304 302 301 302 305 303 303 301 301 299 300 299 303 304 302 300 302 306 307 308 310 311 312 312
315 315 315 313 314 326 321 326 331 331 302 300 305 308 311 312 306 313 314 310 306 302 304 303 305 303 303 302 302 298 303 301 300 298 294 302 292 300 303 304 306 307 309 309 310
315 316 313 312 323 319 324 330 332 329 294 303 305 315 311 308 309 309 315 311 303 303 304 301 303 303 302 301 303 301 304 301 301 299 298 299 296 299 303 300 303 306 308 309 311
315 317 313 319 329 327 331 333 330 308 293 300 306 305 305 307 307 310 309 313 312 305 306 304 307 306 304 305 304 306 304 303 302 300 294 297 297 295 299 301 303 306 308 310 310
316 316 317 330 323 334 338 324 305 298 303 299 301 305 304 303 305 306 305 305 303 298 299 303 303 306 306 303 307 304 301 294 293 294 292 299 295 298 303 304 305 305 307 310 312
317 316 325 332 334 339 330 311 297 299 299 304 304 304 301 304 303 304 304 301 305 304 300 297 295 302 305 302 299 301 299 295 286 289 292 298 291 296 304 306 306 307 307 309 310
315 335 334 337 340 337 317 308 301 300 304 302 303 300 300 302 303 303 302 300 301 304 298 297 296 304 304 305 303 301 296 300 295 295 291 293 298 302 304 303 304 305 306 307 309
323 321 321 336 339 329 314 303 303 306 305 304 298 302 298 300 300 302 301 303 301 304 305 299 296 301 302 305 305 302 302 295 297 287 284 290 292 293 299 301 302 303 304 306 309
328 311 328 335 334 314 309 306 304 307 308 303 302 300 302 300 302 301 300 303 305 304 305 302 300 297 302 300 298 300 299 298 296 294 287 286 289 300 300 301 301 303 305 307 308
326 307 330 336 307 309 308 306 304 306 309 308 307 305 303 303 301 301 300 303 306 306 300 301 299 297 296 302 303 301 299 298 293 290 294 292 289 303 303 304 304 304 305 307 308
313 315 328 329 306 314 308 306 307 305 306 306 305 307 307 304 299 302 303 307 307 305 302 303 300 294 294 299 302 298 300 298 298 294 289 288 290 304 303 304 304 303 305 306 306
317 308 311 315 317 309 306 304 304 309 307 308 307 307 306 303 305 302 302 305 307 305 303 304 299 295 291 293 297 294 296 297 296 292 291 292 293 298 301 301 302 303 305 305 305
319 311 310 310 311 309 309 306 304 302 307 308 305 305 304 301 302 301 304 303 304 302 304 303 297 297 296 296 296 295 295 295 294 295 290 293 293 297 300 301 302 303 304 304 303
314 312 314 312 312 308 304 305 304 304 305 303 303 306 306 302 301 300 302 301 301 304 303 303 297 294 293 297 296 293 295 295 295 295 295 295 295 302 303 303 302 302 302 302 301
320 322 316 306 310 308 308 306 305 308 308 308 307 306 303 305 308 308 308 307 305 303 302 298 296 293 290 294 292 290 294 296 296 298 297 292 297 302 300 301 301 301 302 300 299

GFSSW_sfc_thetae_003.txt.gz
Theta_e
318 320 319 320 319 317 316 316 316 315 316 316 317 317 316 316 315 316 312 316 317 324 320 311 311 311 310 306 307 304 294 292 295 300 296 300 299 300 305 306 308 311 316 319 320
318 318 318 318 317 317 316 316 316 315 317 317 317 317 315 315 315 314 323 324 327 325 311 309 307 309 303 303 304 298 292 294 299 299 296 298 297 300 301 302 303 314 319 320 320
318 318 318 317 318 317 316 316 315 315 317 317 316 315 315 315 314 312 326 328 329 325 312 312 313 309 303 302 301 297 294 297 298 299 300 297 298 301 300 298 302 312 316 318 318
317 316 317 317 317 317 316 315 315 316 316 315 315 314 316 314 303 308 327 328 330 322 316 313 310 301 299 297 300 295 299 300 298 300 299 298 298 297 296 299 305 310 320 319 318
315 315 315 317 317 316 315 315 315 315 313 313 313 314 313 313 310 315 332 328 322 316 314 312 308 303 299 300 300 298 298 300 300 300 300 303 298 299 298 303 305 307 319 319 319
314 315 316 317 317 315 315 314 314 313 312 312 313 313 312 305 316 316 315 319 315 315 314 312 308 308 304 300 298 301 300 298 299 299 301 300 298 300 300 302 304 309 315 315 317
315 315 316 316 316 314 315 314 313 312 311 312 312 313 315 313 313 311 315 311 311 312 310 310 309 305 303 301 304 302 296 298 299 301 300 301 296 297 301 302 302 304 307 313 318
317 317 316 316 314 314 314 313 312 311 311 311 312 312 309 319 310 312 311 311 313 314 312 311 311 307 305 303 301 297 297 292 299 302 302 299 292 298 303 303 300 302 304 305 313
317 316 316 315 314 313 312 311 311 311 311 311 309 313 308 315 310 312 311 310 312 313 311 313 309 304 303 295 292 294 289 294 296 302 301 298 294 300 302 302 301 300 301 302 304
316 316 316 315 314 313 312 313 314 312 312 315 316 309 315 306 311 310 310 312 311 310 308 306 303 297 296 294 289 291 293 293 293 296 297 294 294 299 302 303 302 299 303 306 311
316 316 315 315 314 313 311 309 308 306 312 306 307 309 306 307 310 308 312 310 310 307 300 303 297 292 295 297 298 297 294 294 295 300 297 296 296 299 302 301 302 306 309 309 310
316 315 315 315 314 313 310 313 313 313 302 313 309 308 312 309 305 307 311 306 305 299 302 297 294 299 302 301 299 297 296 295 297 300 296 294 294 299 303 302 303 306 306 307 309
315 316 315 314 314 310 312 317 323 320 301 307 309 308 309 311 306 305 308 306 302 299 299 296 298 303 302 300 298 297 296 295 295 298 297 295 293 297 301 304 305 305 305 306 307
314 315 314 312 311 319 316 321 324 323 294 299 304 307 310 309 304 308 309 306 303 299 300 298 303 302 300 299 298 295 301 299 297 293 288 294 285 294 299 300 302 303 303 304 306
314 315 312 314 313 316 319 324 323 317 281 302 304 313 308 306 305 306 310 308 301 300 301 298 299 300 299 299 301 298 302 299 297 293 291 293 289 294 300 297 299 300 302 303 304
314 315 312 312 313 322 327 327 314 294 284 300 304 304 302 305 306 306 306 309 308 302 301 299 303 301 300 303 302 302 300 299 297 294 284 293 292 293 296 298 300 303 304 304 304
315 315 313 323 318 327 327 313 294 286 302 297 299 303 302 301 302 304 303 300 297 293 294 299 300 301 303 299 302 299 295 285 284 282 282 297 293 293 298 301 302 302 302 304 305
316 315 321 331 331 329 320 304 286 299 297 302 302 302 299 302 301 303 300 296 299 300 296 293 289 298 302 299 295 297 295 284 281 278 285 292 289 291 300 301 302 303 303 304 304
315 322 325 327 332 325 310 291 294 297 301 300 300 298 297 301 301 300 297 295 298 299 294 294 293 300 301 301 300 298 289 295 288 285 282 288 293 297 300 300 301 301 302 302 302
317 318 317 328 330 319 303 298 302 303 303 302 295 299 294 297 297 298 297 301 300 301 301 297 291 298 300 302 302 298 298 289 287 280 278 285 290 290 297 298 300 298 299 300 302
317 305 319 328 322 306 295 300 303 306 307 303 300 298 300 297 298 298 298 300 302 302 300 298 296 294 299 296 294 296 294 294 292 286 279 277 284 296 296 298 298 299 300 300 301
314 300 322 323 299 301 299 307 302 304 307 306 305 303 300 300 299 299 298 300 304 304 297 298 294 284 293 299 300 297 296 295 282 285 283 280 283 298 298 299 299 300 301 301 301
308 310 320 320 291 292 307 305 306 303 304 304 303 304 304 300 295 300 300 305 305 301 297 299 291 283 289 295 298 295 297 298 294 285 282 277 283 300 301 301 302 299 300 300 301
311 297 307 308 309 305 304 302 302 307 305 306 304 305 302 300 302 299 299 304 304 301 301 301 296 287 282 288 292 289 293 295 293 282 284 284 289 294 298 298 298 299 299 299 299
313 303 302 291 298 303 304 303 301 300 305 306 302 303 301 294 298 297 300 301 303 301 302 299 289 292 293 293 294 293 292 292 290 290 284 288 291 295 296 297 298 299 300 299 298
310 306 305 301 302 302 300 301 301 303 303 301 300 303 303 295 298 295 300 299 298 300 299 300 287 285 285 294 293 290 292 292 292 292 292 292 292 298 298 298 298 298 298 296 296
314 313 310 302 301 299 298 303 304 304 303 306 303 300 296 301 303 303 303 302 302 299 295 290 284 283 282 290 287 281 288 294 294 294 293 285 293 297 295 296 296 295 295 295 295

GFSSW_sfc_thetae_006.txt.gz
Theta_e
318 318 318 318 319 319 318 316 315 315 315 315 316 316 316 315 315 314 307 312 316 324 318 309 310 310 307 302 303 301 292 290 293 297 299 301 300 299 304 308 309 311 315 317 315
318 318 318 318 317 317 316 316 315 317 315 316 316 315 314 314 312 312 320 325 326 325 309 307 305 306 301 300 302 297 292 293 298 300 297 297 298 299 302 308 310 313 317 316 313
319 318 318 318 317 317 316 315 315 316 314 316 315 314 314 314 312 312 325 326 327 324 309 310 309 307 301 299 298 295 293 296 297 301 299 297 297 299 300 301 312 312 313 313 312
317 316 317 317 317 316 316 315 315 315 314 313 314 314 314 312 300 308 326 328 329 318 312 311 308 304 300 299 299 293 296 297 297 298 297 297 297 297 297 300 316 317 316 315 313
315 314 315 315 316 317 315 314 314 314 313 312 313 313 311 310 308 314 327 329 325 316 311 309 307 304 298 298 298 295 295 297 298 300 297 298 296 297 296 302 317 318 317 316 315
314 314 314 315 317 317 314 314 313 313 312 311 312 313 308 302 314 313 317 319 314 311 312 311 308 306 302 299 296 298 297 296 297 298 298 297 296 298 297 301 315 317 315 316 317
314 314 314 315 316 316 314 313 313 312 311 311 311 312 311 310 314 312 311 310 312 312 309 309 311 304 303 299 300 298 294 295 294 297 296 299 294 294 300 302 313 315 316 316 317
314 315 316 316 315 313 313 313 312 311 310 311 311 310 306 317 313 310 308 309 311 312 310 310 310 306 301 300 299 296 294 289 296 298 299 297 290 297 298 299 300 308 313 313 314
315 316 315 314 314 313 312 311 311 310 311 311 307 310 303 318 308 310 308 308 310 311 310 310 308 301 300 293 290 292 287 290 293 299 297 295 292 297 299 299 297 297 300 305 308
315 315 315 314 314 313 311 311 313 312 311 314 314 306 312 309 308 308 308 309 308 308 306 304 300 296 295 291 285 288 290 288 291 295 296 293 292 297 298 301 303 305 307 309 309
315 315 315 314 314 313 310 306 304 303 309 302 305 307 307 308 307 305 308 307 307 304 297 301 295 291 293 295 296 296 293 291 292 297 295 294 294 296 301 305 304 305 308 308 307
315 314 315 314 314 313 308 312 311 310 301 311 312 309 309 306 303 305 309 303 303 297 299 296 292 297 300 300 298 297 294 293 296 299 295 294 293 297 302 302 304 305 306 306 307
313 314 314 313 313 309 307 312 319 318 301 304 307 305 307 308 302 302 306 304 300 297 297 294 296 301 300 297 297 296 294 293 293 295 295 296 292 296 300 301 302 302 305 307 307
313 313 312 312 308 312 310 315 317 314 291 296 301 304 307 307 302 306 306 304 302 297 298 296 301 300 298 297 296 293 299 297 295 291 286 292 284 292 296 298 301 303 303 305 306
312 313 311 312 309 314 317 323 320 312 279 298 302 310 306 303 304 303 307 306 299 297 299 296 298 297 296 297 298 296 299 296 295 290 289 290 287 290 297 295 297 298 302 303 304
312 313 311 311 310 316 324 321 308 292 282 297 302 301 299 302 302 303 304 307 305 300 299 298 301 298 297 300 300 300 298 297 295 292 283 291 289 290 292 296 298 299 301 302 302
313 313 311 321 316 323 322 306 291 283 300 295 297 301 299 298 301 301 299 297 295 291 292 297 297 300 301 297 300 297 293 283 283 280 281 294 290 291 298 300 301 300 300 301 302
313 312 313 320 327 323 312 299 284 296 296 299 299 300 297 300 299 300 297 293 297 297 293 290 287 296 300 296 293 295 293 283 280 278 283 292 286 289 299 303 303 304 302 302 302
314 314 321 322 326 317 305 288 292 296 299 298 299 296 295 299 299 297 294 293 296 296 292 291 291 298 298 298 298 295 287 294 286 283 281 286 290 295 299 299 301 301 303 300 300
313 312 311 322 321 311 299 294 300 302 302 300 294 297 292 295 296 296 295 298 298 299 299 295 289 296 298 301 300 294 296 288 285 278 277 283 287 288 294 295 297 296 297 299 300
313 301 308 323 310 302 292 296 302 304 305 299 297 295 297 295 296 295 295 298 301 300 298 297 292 291 298 294 292 294 292 292 290 284 278 276 282 293 296 296 296 296 298 298 298
308 297 316 308 293 296 296 304 302 302 305 303 303 301 298 298 298 296 296 298 303 302 294 296 290 282 291 297 298 295 293 292 281 284 281 278 282 295 296 297 299 299 299 299 299
304 306 316 306 286 285 302 303 303 301 301 302 301 302 302 298 294 298 298 302 301 299 296 296 288 281 288 294 296 293 295 296 290 283 282 276 280 297 298 297 298 296 298 298 298
306 295 302 305 301 300 299 299 300 304 303 303 302 303 300 298 300 296 297 302 300 298 300 300 293 286 283 287 290 286 291 294 290 280 282 282 287 292 294 295 296 296 296 295 296
308 297 299 288 293 301 302 301 299 298 303 303 300 301 298 293 296 295 298 299 300 300 299 296 287 289 290 292 291 290 289 289 289 289 283 287 288 293 294 295 296 297 296 296 295
306 302 301 294 299 300 298 299 299 300 301 299 298 301 300 294 296 294 297 296 295 298 297 296 285 284 284 292 292 287 290 290 290 290 289 291 290 295 295 296 295 295 294 294 295
313 309 304 297 295 295 294 300 301 302 301 303 301 298 295 299 300 300 300 301 300 297 291 288 283 281 281 286 285 280 287 291 291 293 291 284 291 294 293 294 293 292 293 293 293

GFSSW_sfc_thetae_009.txt.gz
Theta_e
318 318 317 317 317 317 318 317 315 315 315 315 314 315 315 314 314 312 306 310 314 322 318 307 306 308 308 301 300 297 290 288 292 296 302 308 299 301 308 313 312 312 312 324 326
319 319 318 318 317 316 316 316 315 315 316 314 314 315 314 314 310 309 318 323 324 326 307 305 303 306 301 299 298 295 289 292 297 300 300 299 302 305 308 309 310 310 313 322 323
318 318 318 318 317 316 316 316 315 315 315 314 314 314 313 313 308 308 324 324 327 324 308 308 307 304 299 297 296 294 292 295 296 303 302 299 297 299 307 303 311 309 310 316 320
316 316 316 316 316 316 316 315 315 315 314 314 313 313 313 310 296 308 326 329 329 313 309 307 304 301 299 297 298 292 296 296 297 299 297 296 297 299 297 308 314 314 313 313 314
314 314 314 315 315 315 315 314 314 314 313 312 312 312 309 308 306 313 330 329 317 312 307 306 304 302 298 297 297 294 293 295 297 297 296 297 295 297 295 304 316 315 312 312 313
314 313 314 314 314 315 315 314 313 313 312 311 311 312 306 298 311 312 318 316 315 310 308 307 305 306 301 298 295 297 294 293 295 297 296 295 294 294 295 311 313 312 311 311 311
313 313 313 314 314 315 315 313 312 312 311 310 311 311 310 304 311 311 313 312 312 310 306 310 310 305 301 296 299 296 292 293 292 294 294 297 292 292 297 312 312 312 313 312 313
313 313 313 313 314 314 313 312 312 311 310 310 311 310 303 314 313 312 305 306 309 312 311 309 309 305 300 299 297 293 291 288 294 296 295 294 289 294 297 310 310 310 310 311 310
313 313 315 314 314 313 312 311 311 310 310 310 306 308 301 315 308 309 307 306 308 309 308 309 306 299 298 292 289 290 285 288 292 297 295 293 290 295 294 303 299 303 305 307 308
314 315 315 314 313 312 311 310 311 311 310 312 312 303 307 304 307 306 307 307 306 307 305 303 299 295 293 289 283 286 288 287 289 293 293 291 291 296 300 301 302 302 303 304 306
315 315 315 314 313 312 309 306 302 301 307 299 302 305 307 311 306 304 306 307 306 302 296 298 294 289 291 293 294 293 290 289 289 295 294 292 293 297 301 303 303 303 303 304 305
314 314 314 314 313 312 306 308 309 311 303 308 309 308 310 307 300 303 307 301 300 295 297 295 291 295 299 298 296 295 291 290 293 296 295 295 293 297 300 301 303 303 302 303 304
313 314 314 313 313 308 305 308 315 313 301 301 307 306 305 306 299 299 304 302 298 295 295 292 294 299 298 296 296 294 291 291 292 294 295 295 292 293 298 300 303 303 304 303 304
313 313 312 312 307 308 307 312 315 309 290 295 299 302 305 305 300 304 305 302 299 295 296 295 300 298 296 295 295 291 296 295 293 290 287 291 283 291 294 297 300 301 302 303 304
313 313 311 312 307 312 315 321 317 308 278 296 300 308 303 302 301 300 306 304 297 297 297 294 296 296 295 294 297 295 297 294 293 288 287 288 285 288 295 294 297 299 303 304 304
312 312 310 310 307 312 320 313 306 290 280 295 300 298 298 300 300 301 303 306 303 298 297 296 299 297 295 298 298 298 296 295 293 290 282 289 287 287 290 294 296 299 302 304 302
312 312 311 316 314 321 316 304 288 283 297 293 295 298 297 296 299 299 297 295 294 290 290 295 295 297 299 296 298 296 291 282 282 280 280 291 288 289 295 297 298 299 299 301 301
312 311 311 313 321 318 307 295 284 294 294 297 297 297 295 297 297 297 295 292 295 295 291 289 286 294 298 295 292 292 291 283 280 277 282 290 285 289 297 300 301 301 300 300 303
311 309 316 320 322 312 302 286 290 294 296 296 297 294 294 297 296 295 292 292 294 295 291 289 289 296 296 297 297 293 287 292 284 282 281 284 288 294 296 298 299 300 300 298 298
312 309 309 319 313 308 297 293 298 302 299 298 292 295 291 293 294 294 293 296 296 297 297 294 287 294 296 298 297 294 296 286 284 277 276 282 284 285 291 294 296 295 296 297 297
307 298 304 315 305 298 289 294 302 301 303 297 295 294 295 293 294 293 294 297 299 299 297 295 290 290 295 292 290 292 290 289 288 282 277 275 282 291 293 294 294 294 296 296 296
303 292 311 304 293 293 293 301 302 299 303 302 301 298 295 297 295 294 294 296 300 299 292 295 289 282 289 295 296 293 291 289 280 282 279 277 281 293 295 296 296 296 296 296 297
301 305 314 302 286 283 296 303 301 299 299 300 299 300 300 296 292 296 296 300 298 297 294 294 287 281 287 292 294 291 293 292 287 283 282 275 279 295 295 295 296 295 296 296 295
301 295 300 302 296 293 295 297 297 302 301 301 299 301 298 296 298 294 295 299 298 297 300 298 291 285 282 286 288 285 289 291 288 279 281 281 284 291 292 293 294 294 294 294 294
303 295 298 289 293 300 300 298 297 296 301 301 298 299 296 291 293 293 296 296 298 299 298 294 286 288 288 290 289 288 288 289 288 287 283 286 286 291 293 293 294 294 294 294 293
304 298 298 292 297 298 296 298 298 298 299 297 297 299 297 293 295 293 295 293 292 297 295 292 284 283 284 290 289 286 288 288 288 288 288 288 288 294 294 295 294 294 293 292 293
306 307 300 293 293 294 293 299 299 300 300 301 300 296 293 297 298 298 298 298 297 295 289 286 282 280 278 284 284 278 285 289 289 291 289 285 290 293 292 294 292 292 292 292 293

GFSSW_sfc_thetae_012.txt.gz
Theta_e
318 318 318 318 318 318 317 316 316 315 315 314 314 315 315 314 313 311 304 310 311 322 316 305 304 304 304 300 299 294 289 286 294 299 300 308 300 303 311 312 312 312 317 325 334
318 318 318 319 318 318 317 316 316 315 314 314 314 314 314 313 308 307 316 323 323 323 304 303 301 304 299 298 298 293 289 290 296 301 304 308 303 305 310 309 308 310 323 330 332
318 318 317 318 318 317 317 316 315 315 314 314 314 313 312 312 306 306 323 324 325 321 306 306 305 302 297 296 295 291 291 293 295 305 305 299 303 302 309 304 308 312 318 323 326
316 316 316 316 316 316 316 315 315 314 314 314 313 312 312 309 294 305 329 326 327 314 307 304 302 299 297 295 298 292 296 296 296 302 298 299 298 305 302 306 314 319 322 321 322
315 314 314 314 315 315 315 315 314 314 313 312 312 312 308 305 305 315 330 328 318 308 305 304 301 300 298 298 297 295 295 295 296 296 295 297 296 302 296 307 313 318 319 318 319
314 314 314 314 314 314 314 314 313 313 312 311 311 311 304 297 308 316 320 314 311 308 306 305 304 304 300 296 296 297 293 294 296 294 292 294 293 293 295 310 310 313 315 315 317
314 313 313 313 314 313 315 314 312 312 311 310 310 309 307 303 310 312 315 311 311 309 306 307 306 302 300 297 298 295 292 292 293 293 293 296 291 290 299 310 308 309 310 308 309
315 313 312 313 313 313 313 313 312 311 311 310 311 308 303 312 313 312 306 304 311 310 308 309 309 304 301 299 295 292 290 287 291 294 294 292 286 293 303 309 306 307 309 309 309
313 312 312 313 313 313 312 311 311 310 310 310 307 306 300 312 308 308 306 304 306 308 309 309 306 299 297 292 289 289 284 287 290 294 293 292 288 295 297 306 302 303 303 306 307
313 313 314 314 314 312 310 311 310 310 310 311 310 301 304 301 308 305 306 307 306 305 305 302 299 294 293 290 284 285 286 286 287 291 293 290 293 297 300 301 301 300 302 304 304
315 315 314 314 313 311 309 306 301 300 305 297 299 300 304 307 306 301 304 305 304 302 296 298 294 289 290 292 291 291 289 287 287 292 294 293 293 296 300 300 299 299 301 301 303
314 314 314 314 313 311 308 304 306 308 302 307 307 306 309 307 299 300 305 300 299 295 296 294 290 294 297 296 294 293 289 288 291 295 295 293 291 294 297 298 299 300 300 301 302
313 313 314 313 313 310 305 305 314 311 300 301 306 305 305 306 299 298 303 300 296 294 294 291 293 298 296 294 294 292 290 289 290 295 294 293 291 292 297 301 302 301 301 302 302
312 313 312 312 307 306 304 309 315 308 289 294 297 300 303 302 298 302 303 301 298 293 295 295 298 296 294 293 293 289 294 292 292 290 286 291 283 289 294 296 299 300 299 300 301
312 312 311 311 305 310 313 320 315 305 277 294 298 305 301 300 299 299 305 302 295 295 295 293 294 294 293 293 295 293 296 293 291 288 286 287 285 287 294 294 297 298 300 300 300
312 312 311 308 305 310 316 308 304 290 280 293 298 296 297 299 298 300 302 304 300 297 296 294 297 295 294 297 296 297 295 293 291 288 281 286 286 285 290 294 296 298 301 301 300
312 312 310 313 312 319 311 301 288 282 295 291 293 296 295 295 297 297 296 294 292 289 289 293 294 296 297 294 296 295 290 282 281 279 280 289 286 287 294 296 299 299 299 300 299
311 311 310 312 314 314 303 294 283 292 292 295 295 295 293 296 295 295 293 291 294 293 289 288 285 292 296 293 291 290 290 283 278 276 281 288 284 288 295 297 300 300 299 299 300
310 308 310 317 313 309 298 283 287 292 295 294 295 292 292 295 295 294 291 290 292 293 290 287 288 294 295 295 295 291 285 291 284 281 280 283 288 292 295 296 297 298 298 298 298
309 309 309 316 311 305 293 290 296 300 297 296 290 293 289 292 292 292 291 294 294 296 295 293 286 292 294 297 296 292 294 285 283 277 275 280 283 284 291 294 296 296 296 296 296
304 299 303 312 303 297 287 291 300 304 301 295 294 292 293 292 292 291 292 295 297 297 297 293 289 288 293 291 289 291 288 287 286 281 276 273 281 290 293 296 294 294 295 296 295
299 292 307 302 293 291 291 299 302 298 301 300 298 296 293 295 293 292 292 294 297 298 292 293 288 282 288 293 295 292 289 287 279 280 278 276 280 291 293 294 295 294 295 295 295
299 304 312 302 285 283 293 299 301 297 298 298 297 298 298 295 291 294 295 298 296 295 293 293 286 281 286 289 291 289 291 289 285 282 281 275 280 293 294 294 294 293 294 294 294
302 295 300 298 294 292 293 294 296 300 299 299 298 299 296 295 296 293 294 297 297 296 299 297 288 285 281 284 287 285 289 289 286 278 280 280 282 290 291 292 292 293 293 293 293
299 295 299 289 292 293 295 296 295 295 299 299 297 297 295 291 292 291 294 294 296 298 296 292 285 286 287 288 288 286 286 288 286 285 283 284 284 288 292 292 293 293 292 292 292
302 296 293 292 298 298 294 296 296 296 297 295 295 297 296 291 293 292 294 291 290 296 292 290 282 283 284 288 287 285 287 287 287 287 287 286 286 292 292 293 292 293 292 291 292
304 303 298 290 292 294 292 298 298 298 298 299 298 295 292 295 297 296 296 295 295 294 287 284 281 279 277 282 281 278 284 286 286 287 287 284 288 291 291 292 293 292 292 292 292

GFSSW_sfc_thetae_015.txt.gz
Theta_e
318 318 318 318 318 318 318 317 316 315 315 315 314 314 314 313 313 311 305 311 313 323 318 308 308 309 309 307 305 301 297 298 301 303 304 310 306 310 316 315 315 315 324 329 336
318 318 318 318 317 318 317 317 316 316 316 314 314 313 313 313 308 306 316 322 322 324 308 306 304 308 305 305 304 301 297 296 303 309 307 310 309 310 313 313 311 321 329 334 334
317 318 317 317 317 317 317 317 316 316 315 314 313 313 312 312 306 307 324 323 324 321 309 309 308 307 303 303 302 299 299 299 299 309 312 309 305 310 313 311 313 319 323 327 329
316 316 316 316 315 316 315 315 316 316 314 313 313 312 312 309 298 310 330 326 326 313 309 308 306 303 302 300 302 298 299 298 300 308 309 305 306 311 315 312 317 326 329 328 327
316 315 315 315 315 314 314 315 315 314 313 312 312 311 309 306 306 318 328 327 321 310 308 306 304 303 301 302 301 298 300 299 299 303 304 302 304 310 308 314 322 327 329 329 329
315 314 314 314 314 314 314 313 314 313 313 311 310 311 305 299 311 322 321 317 313 309 307 307 305 306 303 301 301 301 298 298 298 298 298 300 299 304 304 315 322 325 326 327 326
315 314 314 313 313 313 313 313 313 313 311 310 310 309 306 305 312 320 316 314 312 311 307 308 309 306 305 300 301 298 296 297 298 299 298 301 297 295 306 313 318 322 320 321 320
314 314 313 312 313 312 312 313 312 312 310 309 310 308 304 314 315 312 312 310 313 312 310 312 310 307 305 303 299 296 296 293 297 299 298 298 293 300 304 311 311 313 314 315 314
314 313 313 312 312 312 312 312 312 310 309 310 307 306 304 313 309 311 309 308 310 311 311 311 311 305 300 297 295 295 292 292 295 299 299 298 294 302 305 310 308 309 311 312 314
313 313 312 312 313 312 310 311 310 310 309 311 310 304 306 304 310 307 310 310 310 307 306 305 302 299 297 295 290 291 292 293 294 297 300 299 298 302 305 308 307 308 309 311 310
313 313 314 314 313 311 309 307 303 303 305 302 302 301 304 310 308 306 309 309 309 306 300 301 298 295 297 296 294 294 293 292 294 297 299 297 298 300 304 305 305 307 308 309 309
313 314 314 314 313 310 308 304 305 312 305 308 307 307 309 310 303 304 311 305 306 299 300 299 295 298 300 299 297 296 294 293 296 299 299 298 298 301 303 303 304 306 307 309 310
314 313 314 313 312 308 306 307 313 315 305 304 307 306 306 308 302 302 308 306 300 298 297 297 298 300 299 297 297 296 295 293 294 298 299 299 296 299 302 304 305 306 307 309 310
312 312 312 312 307 307 306 312 312 314 293 296 300 303 305 305 302 305 307 305 301 296 298 299 300 298 297 296 297 294 298 297 296 295 292 295 290 296 300 302 304 305 307 308 309
312 312 311 312 307 307 313 322 314 308 283 297 300 308 304 301 302 303 308 305 298 298 299 297 298 297 297 297 300 296 298 297 294 293 293 293 293 293 300 299 302 304 305 306 307
312 312 311 309 307 311 316 314 308 293 283 295 301 299 300 301 301 303 305 306 304 300 300 298 301 300 299 299 299 300 298 297 295 294 289 291 292 292 296 300 302 304 305 305 305
312 312 311 312 310 321 315 305 292 287 297 294 296 299 298 298 299 299 298 298 297 294 294 297 297 299 301 299 300 299 296 289 288 288 287 292 290 294 298 301 305 304 305 306 307
311 311 310 311 314 312 306 297 287 293 294 297 297 297 296 298 297 297 296 295 298 296 293 291 289 296 299 298 297 295 296 290 282 284 288 292 289 295 299 302 306 307 307 306 306
310 308 308 314 314 311 300 287 289 292 297 296 297 295 296 298 297 296 294 294 296 297 294 292 291 298 298 300 300 295 292 295 288 285 286 289 293 297 298 299 302 303 304 305 305
307 306 309 319 315 306 296 290 296 300 300 298 292 296 293 295 295 295 295 298 297 299 300 296 291 296 298 300 299 297 297 291 290 282 280 285 287 291 295 297 300 301 303 304 304
307 304 308 312 307 300 291 292 301 305 302 297 296 295 295 295 295 294 294 298 300 299 300 296 295 293 296 295 294 295 293 290 291 287 283 281 287 296 298 300 300 303 303 303 303
301 295 310 305 296 294 293 298 302 302 303 302 300 298 296 297 296 295 295 297 300 301 297 297 294 290 292 297 299 297 294 292 288 284 284 285 288 295 298 300 301 301 301 302 302
298 305 313 305 290 289 296 301 303 300 300 301 300 301 301 297 294 296 297 300 299 299 297 297 292 288 290 293 296 295 294 291 289 288 285 287 288 296 297 297 300 301 300 299 300
304 298 304 299 296 294 295 297 298 301 301 301 300 301 299 298 298 295 296 299 301 299 299 299 291 290 287 289 292 290 293 291 291 287 286 288 290 293 296 296 297 298 299 299 298
301 298 303 292 292 294 296 297 297 297 301 301 300 299 298 294 295 294 297 297 299 299 298 296 290 290 290 290 291 290 291 291 290 290 289 290 288 293 297 298 298 298 298 297 296
299 297 296 295 297 295 294 297 297 298 299 298 298 299 300 295 296 294 296 295 294 298 295 293 288 288 288 289 289 289 290 290 291 291 290 290 291 296 297 298 297 297 296 296 296
306 303 300 290 295 294 293 296 298 301 300 301 300 298 296 299 299 298 298 297 298 296 291 289 286 285 283 285 285 284 288 290 290 291 293 289 295 296 295 295 297 297 297 296 297

GFSSW_sfc_thetae_021.txt.gz
Theta_e
319 319 318 320 319 319 318 318 318 318 318 317 317 316 315 315 313 315 312 316 318 326 319 318 315 316 314 311 311 312 303 300 303 307 309 317 314 318 319 314 320 324 325 330 338
319 319 318 319 318 318 318 317 317 317 317 317 316 315 315 314 313 313 321 325 323 326 315 312 311 312 309 309 309 306 301 303 311 313 309 314 313 313 313 311 317 324 331 335 336
319 318 317 318 318 317 317 316 316 316 317 316 315 315 315 314 312 313 328 325 324 325 317 315 313 310 307 309 308 306 303 307 310 314 317 312 312 315 313 310 318 321 327 332 333
319 318 317 317 316 317 316 315 315 316 316 315 314 314 314 315 304 320 330 326 325 320 316 312 310 307 306 304 308 304 307 307 310 314 312 310 313 311 307 309 319 326 330 332 331
318 317 316 316 316 316 315 315 315 316 315 314 313 313 314 313 312 325 327 326 318 317 313 310 308 308 304 305 306 305 306 308 312 313 311 312 310 311 312 316 323 328 331 329 330
318 317 316 315 315 315 315 314 315 315 313 313 312 311 313 306 318 324 320 317 317 316 312 312 309 310 307 306 306 308 307 306 309 311 313 309 309 312 315 320 323 326 326 324 324
317 317 316 315 315 314 314 314 314 314 312 311 311 313 312 311 319 325 319 317 317 315 312 315 315 310 310 306 310 307 302 304 306 309 310 311 304 306 316 319 319 321 322 323 323
317 317 315 315 314 313 313 314 313 312 311 311 311 315 310 320 322 321 322 319 320 318 317 318 317 312 309 310 306 303 303 298 304 308 309 309 300 308 315 317 316 318 320 322 324
317 316 314 313 313 312 313 313 311 311 310 311 314 314 310 317 313 318 320 315 317 317 317 316 315 310 309 304 300 301 295 298 300 308 307 307 301 308 315 315 315 318 320 322 322
316 315 314 313 313 312 312 311 311 310 312 316 316 312 316 309 315 315 318 317 314 314 312 311 309 306 305 302 293 296 296 299 299 305 306 302 303 307 313 313 315 317 319 321 320
316 314 313 313 314 312 310 315 312 312 313 310 311 309 309 314 317 314 315 314 314 312 305 308 301 298 301 303 302 301 299 298 301 304 302 301 303 306 311 313 314 315 318 320 321
315 314 313 314 314 311 314 312 316 320 311 314 312 311 313 314 308 311 315 309 308 303 306 303 299 304 304 303 301 300 298 299 301 304 304 302 302 306 309 311 314 315 316 318 320
314 314 314 314 312 311 315 315 324 322 312 310 312 310 311 313 307 308 312 311 306 303 303 300 302 306 303 302 300 300 298 299 299 303 305 304 301 305 309 312 314 316 318 319 320
314 314 313 311 308 317 314 319 321 320 305 303 307 310 312 312 306 312 313 310 305 302 303 301 306 304 301 300 302 298 304 302 301 300 295 304 293 302 307 308 310 313 316 319 320
314 313 312 311 320 314 322 328 325 324 290 304 306 315 311 306 307 308 314 310 304 303 303 301 303 303 300 302 305 301 305 304 303 301 300 300 296 296 307 305 308 311 314 317 320
313 313 312 312 316 322 326 330 326 304 289 299 305 304 305 306 305 309 308 312 311 304 306 302 309 307 306 306 306 306 304 303 303 300 293 297 296 297 303 306 309 312 315 318 321
313 312 313 318 315 327 331 323 303 294 302 298 300 304 303 301 302 304 303 302 300 297 297 303 303 306 307 303 306 305 301 293 291 292 291 299 297 299 304 309 310 312 315 319 320
312 312 313 319 323 328 327 310 294 298 299 303 302 302 299 302 302 302 302 300 304 303 298 296 295 303 307 305 301 302 301 294 286 288 292 300 293 298 308 309 311 315 316 318 317
311 313 313 318 322 324 316 301 298 299 303 300 301 298 299 301 301 301 300 300 303 305 298 297 296 305 305 306 305 301 298 303 297 297 292 294 298 305 307 307 310 313 314 315 314
313 310 313 323 323 321 309 299 302 305 305 303 297 300 297 300 298 299 300 304 303 307 309 302 296 302 304 306 306 304 305 296 296 287 286 292 294 297 302 304 308 311 313 314 314
314 307 319 325 322 313 302 303 304 309 308 303 300 299 301 300 300 299 300 304 307 306 308 304 300 300 303 301 300 301 299 299 299 298 290 287 293 303 301 305 307 310 313 314 314
312 303 323 328 305 309 304 305 304 307 311 306 306 303 301 302 300 300 299 302 309 308 302 305 301 297 299 305 306 305 302 302 294 292 295 294 292 304 305 307 309 310 313 314 315
309 310 325 322 302 308 308 305 306 307 307 306 303 305 305 302 298 301 302 307 308 307 304 307 299 294 296 301 304 300 302 302 300 299 293 291 293 305 305 305 307 309 312 313 314
310 304 312 315 312 308 305 303 302 309 307 308 305 308 306 304 306 303 304 305 307 307 301 304 302 298 293 297 301 299 300 301 300 294 294 295 296 300 302 303 305 307 310 313 313
312 307 310 303 307 309 307 304 301 302 308 310 306 305 304 301 303 303 306 304 306 301 305 306 298 301 301 300 300 299 298 300 298 298 295 297 296 299 302 303 305 307 309 309 311
308 308 311 309 309 307 303 303 302 304 306 305 304 305 306 303 304 302 306 305 304 307 306 306 299 299 297 300 299 297 299 299 299 299 298 298 298 304 305 306 305 306 307 307 309
316 316 312 307 309 304 305 304 303 308 309 309 308 307 306 308 311 312 312 310 309 307 305 303 301 296 291 295 295 291 297 298 299 300 300 296 301 304 303 303 304 305 307 307 309

GFSSW_sfc_thetae_024.txt.gz
Theta_e
321 321 320 318 319 318 318 318 317 317 318 318 317 316 316 316 314 314 310 315 319 326 320 315 313 311 313 309 311 309 299 297 300 302 306 310 310 316 319 315 318 320 324 332 336
320 319 319 319 318 317 317 318 317 317 317 317 317 316 316 315 312 311 319 328 325 327 313 311 309 310 308 307 308 304 299 300 308 313 308 310 311 313 313 313 316 320 331 334 335
320 319 319 318 318 317 316 316 316 316 317 317 316 315 315 314 312 314 329 325 325 323 313 315 313 310 305 307 306 305 300 305 310 311 312 311 311 314 312 309 314 310 324 329 330
320 319 318 317 317 317 316 315 315 315 316 315 315 314 315 314 303 318 331 327 326 316 313 313 310 305 303 303 307 302 305 307 310 314 312 309 314 310 312 311 317 319 327 328 328
319 319 318 317 316 316 316 315 315 315 315 314 314 313 313 312 312 324 330 325 316 314 313 310 306 305 302 305 305 303 306 307 312 312 311 314 312 311 308 314 317 318 327 326 327
319 318 318 316 316 315 315 315 315 315 315 313 313 313 312 305 319 323 322 318 313 314 313 310 308 310 306 305 304 306 307 306 310 311 310 310 310 310 312 316 315 321 322 324 323
319 318 317 316 316 314 314 314 315 314 314 312 312 312 311 309 320 323 317 315 316 316 311 313 313 309 309 306 310 308 302 304 306 310 308 311 306 306 315 319 318 318 318 319 321
319 318 316 315 314 314 313 313 314 314 313 312 312 313 309 320 322 319 320 318 319 317 315 317 317 312 309 311 306 303 303 297 304 308 309 308 298 306 315 315 314 316 317 318 318
318 317 316 314 313 313 313 314 314 313 312 312 312 315 309 319 314 317 319 316 316 317 317 316 314 309 309 303 300 302 294 297 300 307 308 305 300 306 312 313 313 315 316 318 319
318 317 315 314 313 313 313 313 314 311 312 315 315 309 315 310 313 316 318 317 314 314 311 310 308 304 304 300 291 294 295 297 298 302 306 303 302 306 309 313 313 315 316 318 318
317 316 315 314 314 313 311 313 310 310 313 308 310 309 310 314 316 314 316 314 313 311 304 308 302 298 301 302 302 300 299 297 300 304 302 301 301 303 308 310 312 314 316 317 318
316 316 314 314 314 313 313 313 317 319 310 314 309 312 314 315 308 311 315 309 309 303 306 303 298 303 305 304 302 300 298 297 300 303 302 300 300 304 307 309 312 313 315 317 318
316 315 314 314 313 311 313 313 322 320 310 310 312 309 311 312 307 308 311 309 305 302 302 300 301 306 304 302 299 299 299 298 298 300 301 301 297 301 305 309 311 314 315 317 318
315 314 313 312 307 316 313 318 319 322 303 304 306 309 312 311 305 312 312 310 306 302 303 302 306 303 302 300 301 297 304 302 300 298 293 302 291 297 303 305 308 311 313 315 317
314 313 312 311 317 314 324 324 327 324 290 305 306 315 312 306 306 307 313 311 303 303 304 301 301 301 300 301 304 299 304 303 302 298 298 297 293 298 303 302 306 311 314 317 318
313 313 312 312 313 319 325 329 326 303 289 300 306 304 304 305 305 308 308 311 311 304 303 303 307 306 304 305 306 306 303 303 301 299 290 295 294 295 299 302 301 310 313 316 318
313 313 312 318 314 324 326 323 301 292 302 299 300 303 302 301 302 304 303 301 299 296 296 301 301 306 307 301 305 302 299 292 289 289 290 299 296 297 303 305 306 308 312 315 319
312 312 312 316 321 326 325 311 293 297 299 303 301 302 299 301 301 301 301 298 302 301 298 294 293 302 305 302 299 300 298 294 283 283 291 299 293 297 307 309 310 314 315 318 319
311 313 312 316 320 324 315 299 297 300 302 301 300 297 298 300 300 300 299 299 301 302 296 295 295 305 305 306 304 300 296 302 295 298 293 293 296 302 306 306 308 313 315 316 317
311 309 310 320 323 317 308 299 301 306 305 303 296 299 296 298 297 298 298 302 301 306 307 300 291 303 304 305 305 302 303 296 296 287 285 290 293 295 302 303 306 310 312 315 316
311 304 316 323 321 310 301 302 305 308 307 303 299 298 300 299 299 298 298 302 306 306 307 303 300 299 303 300 297 300 298 298 297 298 291 288 291 302 301 304 306 309 313 314 315
310 299 320 324 302 303 303 304 305 306 308 306 305 302 301 302 300 299 298 302 307 306 301 304 301 297 297 304 306 303 301 300 296 292 297 294 292 305 304 305 308 309 311 314 315
304 307 322 319 296 300 306 305 306 305 306 306 304 305 304 302 298 301 302 308 309 306 303 306 299 293 294 300 304 300 301 300 301 301 294 291 293 305 304 304 306 308 310 313 314
306 300 309 313 307 303 303 302 302 308 306 307 305 306 303 301 303 300 302 306 308 308 302 308 301 296 292 295 301 299 300 300 299 295 295 293 295 300 302 303 304 306 308 311 313
309 304 308 300 304 305 308 304 301 301 306 308 304 303 303 300 301 301 304 305 306 302 305 305 297 299 299 300 300 300 299 299 297 298 293 297 296 300 302 303 305 307 308 308 308
304 305 310 306 306 305 304 304 302 303 305 304 304 304 305 302 303 301 304 305 303 306 305 306 299 301 298 300 300 297 299 299 298 298 298 298 297 304 305 306 305 305 305 307 307
311 316 310 304 305 304 305 306 305 306 307 308 307 306 304 307 310 312 313 312 309 307 305 305 303 297 292 296 294 289 296 297 298 300 299 294 301 304 302 303 305 306 306 306 307

GFSSW_sfc_thetae_027.txt.gz
Theta_e
322 321 320 320 319 317 316 316 316 317 317 317 318 318 317 317 315 310 306 311 313 322 322 311 309 306 306 302 305 300 290 289 292 301 304 310 308 315 316 312 314 320 324 327 327
322 321 320 320 318 318 316 316 315 316 317 317 318 317 317 315 308 307 316 324 325 326 310 307 306 305 298 300 301 297 289 293 305 308 306 309 309 310 311 311 313 316 326 328 324
322 321 320 320 319 318 316 316 314 316 316 317 317 317 315 313 307 312 328 324 327 324 309 308 308 305 299 301 300 297 294 299 308 310 310 308 310 312 309 306 312 312 317 322 324
321 320 320 319 319 317 315 314 315 315 316 316 316 316 315 310 300 312 329 328 327 314 310 307 306 300 298 296 300 294 301 302 310 310 310 308 312 307 306 310 314 314 318 321 324
319 319 319 318 318 317 315 314 314 315 316 315 315 314 309 307 310 323 327 326 314 311 307 307 305 301 297 299 300 298 300 304 312 312 311 313 310 309 307 312 319 322 322 322 324
319 318 318 318 317 317 315 314 314 315 315 315 314 314 306 303 319 324 318 314 310 308 310 309 305 305 302 301 300 302 301 302 307 310 312 309 309 308 309 313 314 319 320 322 324
319 318 317 317 317 315 315 313 313 314 315 314 313 310 307 305 314 314 318 311 309 310 307 310 309 306 305 302 307 304 298 298 302 306 307 308 301 301 311 314 313 314 319 318 320
319 318 317 316 315 314 313 312 313 314 314 314 313 308 304 319 314 313 311 310 312 312 312 311 312 308 305 306 304 298 297 293 299 306 307 303 293 306 309 311 309 312 313 314 315
318 318 316 315 313 313 313 313 313 315 314 313 307 306 307 321 313 314 313 313 314 312 312 314 309 305 304 298 294 295 290 293 297 304 303 300 295 306 310 311 310 310 310 311 312
318 317 316 314 313 312 312 313 313 312 312 312 311 303 310 310 313 313 313 314 312 312 309 307 302 298 298 295 287 292 293 292 293 299 302 297 296 301 307 309 309 308 309 311 310
318 317 316 314 313 312 310 308 304 304 306 305 306 305 309 312 313 309 312 311 310 307 300 303 296 293 296 300 300 298 295 293 295 299 300 298 297 299 302 307 306 309 312 312 311
317 316 315 314 313 313 308 305 311 310 304 312 309 309 310 312 306 308 311 305 305 299 303 299 294 300 303 303 300 299 297 295 296 299 297 296 295 299 301 303 309 306 308 311 312
316 316 315 313 313 310 306 308 314 312 303 309 313 309 307 310 305 305 307 305 302 300 301 297 300 305 302 300 298 299 296 295 295 294 293 295 292 297 301 305 308 310 312 314 313
315 314 313 312 306 309 307 314 313 311 297 303 307 308 309 309 303 310 310 307 304 300 301 299 305 302 300 298 299 294 301 299 298 295 287 296 285 297 300 302 304 306 307 313 313
314 313 312 312 309 309 317 320 314 314 285 303 305 313 309 305 305 304 312 308 300 302 302 298 301 299 298 299 302 297 301 299 300 296 294 294 289 292 301 298 302 303 306 307 315
314 313 312 310 309 309 314 315 318 297 285 300 305 302 302 304 303 304 304 307 308 303 302 301 304 303 301 303 302 303 301 300 298 294 285 293 291 292 295 299 302 306 308 309 310
313 313 311 314 307 316 313 312 295 285 301 298 298 302 300 299 300 300 299 297 296 292 293 298 300 303 306 300 302 300 294 286 284 282 283 297 292 294 300 302 305 306 306 306 313
313 311 312 312 314 315 315 304 289 296 297 303 300 300 296 299 298 299 297 294 297 296 294 292 289 299 303 299 298 296 295 287 281 282 285 297 290 294 302 306 307 308 306 308 312
311 311 309 310 312 313 309 294 291 298 300 300 298 295 295 298 297 296 296 295 297 297 292 292 293 303 305 304 301 297 291 300 291 291 286 289 293 300 303 303 305 305 306 310 311
309 307 306 313 315 311 303 295 300 304 304 302 294 296 292 295 294 294 294 298 298 303 304 298 292 300 302 304 302 298 300 290 290 281 280 285 288 292 297 299 303 303 308 310 310
308 302 308 314 313 306 293 297 302 307 305 302 297 295 296 296 295 294 295 298 301 303 304 300 297 297 301 298 295 295 293 294 293 288 282 279 285 295 296 300 301 306 310 311 310
307 296 310 315 297 297 294 301 303 305 308 304 303 301 297 299 296 294 295 301 304 304 299 300 296 289 296 301 302 299 297 296 284 285 285 282 285 297 297 300 301 302 309 311 311
302 303 312 310 290 292 297 301 304 304 304 303 302 304 302 300 296 297 301 306 306 304 299 301 293 283 288 294 299 296 297 297 297 290 285 279 285 298 299 298 300 300 303 309 310
303 296 305 307 300 295 294 297 299 306 305 305 303 304 301 298 301 297 300 305 306 304 301 303 296 290 283 290 296 293 297 298 294 284 284 285 291 295 296 297 298 300 300 304 309
302 297 304 296 298 296 298 299 299 299 305 305 302 301 299 294 297 296 302 302 305 302 302 300 291 294 296 299 298 297 297 297 294 293 287 291 293 296 296 296 297 300 301 301 303
299 298 305 300 301 299 297 298 300 301 302 300 300 301 300 297 299 296 302 301 299 301 299 301 292 292 290 297 295 292 295 295 295 295 293 293 293 298 299 299 298 299 300 301 301
304 306 305 299 300 297 296 300 301 303 304 304 304 302 299 304 306 306 306 305 305 300 297 296 290 286 284 291 289 282 289 293 295 295 294 288 293 297 297 299 298 299 300 301 301

GFSSW_sfc_thetae_030.txt.gz
Theta_e
322 322 321 321 320 318 318 316 316 315 316 317 317 317 317 317 314 309 303 309 311 321 320 308 307 304 302 299 301 299 291 287 290 296 302 310 308 315 316 312 319 324 322 323 327
322 322 321 321 319 318 318 315 315 314 316 316 317 317 317 315 308 305 314 322 322 326 309 305 303 303 296 296 299 295 289 291 296 306 304 308 307 311 309 312 314 319 322 323 325
322 322 321 320 320 318 317 315 315 314 316 316 317 317 316 313 306 312 326 323 326 324 307 307 306 303 296 296 297 295 292 296 301 307 308 305 306 311 309 305 311 312 318 320 320
321 320 320 320 319 318 317 315 315 314 315 315 316 316 315 309 298 307 328 328 328 313 308 305 303 299 296 294 298 294 298 299 304 310 308 307 309 305 305 310 315 318 320 319 319
319 319 319 319 319 318 316 315 314 314 314 315 316 315 308 305 308 321 328 327 314 309 305 304 303 303 296 296 297 296 299 303 309 309 310 311 309 305 308 311 318 322 321 319 319
318 318 318 318 318 317 315 315 314 313 314 315 315 313 306 299 317 321 315 311 308 306 306 305 305 304 299 299 297 302 300 306 309 309 310 308 308 305 307 315 316 319 320 319 318
319 318 318 318 317 316 315 314 313 313 314 314 314 310 304 300 313 316 314 309 307 307 305 308 308 304 303 301 305 303 296 302 307 308 307 308 301 301 309 315 315 318 320 318 317
320 318 317 316 315 314 313 313 313 313 314 314 313 306 301 316 313 312 312 309 310 309 308 310 309 307 303 304 302 297 295 291 303 306 307 301 294 304 308 312 311 313 318 319 318
319 318 316 315 314 313 312 312 313 314 314 314 305 305 304 318 313 315 312 309 309 308 308 313 307 302 302 297 293 292 287 291 295 304 304 298 295 304 307 309 308 309 314 318 320
319 318 316 315 313 312 312 312 313 312 311 311 309 300 306 307 313 312 311 311 310 308 306 304 300 296 296 293 286 290 291 291 292 296 300 297 296 304 307 308 309 306 307 310 316
319 318 316 315 313 312 308 306 304 304 304 300 300 302 305 311 312 308 310 309 308 306 298 302 294 292 295 297 299 298 295 293 296 297 298 297 295 304 306 307 307 305 306 308 313
318 317 316 314 312 312 307 302 307 305 300 309 309 308 310 310 304 306 310 303 303 297 301 296 293 298 301 302 299 297 294 293 296 298 298 295 294 299 301 305 307 307 308 308 309
317 316 315 313 312 309 304 305 312 310 300 307 311 309 311 308 303 304 306 304 301 298 298 294 298 303 301 298 297 296 294 294 294 294 293 293 292 294 299 305 309 310 311 311 311
316 315 313 312 305 307 305 313 312 309 295 300 305 309 307 306 302 308 307 304 300 298 298 296 301 301 299 297 298 292 298 297 296 292 285 292 285 293 297 299 306 306 306 310 312
315 314 311 311 307 307 312 313 311 310 277 301 305 313 307 303 302 303 309 305 298 300 298 295 298 297 296 297 300 295 299 297 297 293 290 291 286 290 296 295 301 303 305 307 311
314 313 311 310 308 307 311 312 314 295 283 299 303 301 300 302 302 302 304 306 304 300 300 298 302 301 300 302 301 301 298 297 296 293 284 291 288 288 293 297 297 302 305 307 309
314 313 311 312 305 312 315 311 292 288 299 297 297 300 298 298 299 299 297 296 294 291 291 296 298 300 304 297 300 298 292 284 283 282 282 294 289 290 298 300 301 302 302 305 311
312 312 312 312 311 311 313 305 288 294 296 301 299 299 295 297 297 297 295 292 295 295 291 289 288 298 302 299 294 294 292 284 280 279 284 294 288 293 300 303 304 304 304 307 310
312 310 309 310 311 312 308 293 289 297 298 297 297 294 293 296 296 294 293 293 295 295 290 290 291 301 302 302 300 295 289 295 288 288 285 288 291 297 300 300 302 302 304 306 309
308 307 307 311 311 308 301 293 297 304 303 301 292 294 290 293 292 292 292 296 296 298 301 297 289 298 301 302 301 297 298 289 288 281 281 284 286 289 296 298 300 301 301 307 309
306 301 309 314 310 301 292 293 299 305 305 300 297 295 294 293 293 291 292 296 299 302 302 299 293 294 299 296 295 294 292 292 291 286 281 279 284 292 296 299 301 301 303 308 309
303 295 309 314 295 295 295 298 299 302 306 304 302 299 295 295 293 293 293 295 301 303 297 300 295 286 294 300 301 296 295 294 283 284 283 281 285 296 296 299 302 303 306 310 310
298 301 310 309 289 289 295 298 300 300 302 302 300 301 300 297 292 296 297 303 304 301 298 299 291 283 287 292 296 294 296 295 293 287 284 279 284 297 296 296 299 301 305 310 309
299 293 301 303 300 292 292 295 295 302 301 303 302 302 299 296 299 296 298 303 304 302 301 301 293 288 283 287 292 291 295 296 293 282 284 284 289 295 295 295 296 298 300 307 309
300 296 298 292 293 293 294 295 293 293 303 303 300 300 298 292 294 296 300 300 303 301 300 297 290 291 292 295 296 293 294 295 292 291 286 290 290 294 294 294 296 297 298 302 305
296 297 300 296 297 294 293 293 293 295 298 298 299 301 299 295 295 295 300 298 297 299 297 298 290 290 288 293 292 290 292 293 293 293 293 292 291 294 295 296 297 297 298 298 299
301 304 301 296 296 293 292 294 294 297 301 302 301 300 297 299 303 301 303 303 302 298 295 294 288 285 284 288 287 282 288 291 293 293 293 286 291 294 295 296 295 296 298 298 299

GFSSW_sfc_thetae_033.txt.gz
Theta_e
322 322 321 321 320 319 318 318 316 315 315 315 316 316 317 316 314 308 302 308 310 320 319 306 305 302 300 297 298 296 290 287 289 291 300 308 308 312 315 316 319 322 320 323 328
322 322 321 321 320 319 318 317 316 316 314 315 316 316 317 316 307 304 314 319 321 322 307 301 301 301 295 294 296 294 288 292 295 299 302 307 305 310 311 313 314 316 322 325 326
322 322 321 320 320 319 318 317 315 315 314 315 316 316 316 313 305 309 326 323 324 324 305 305 304 301 295 294 295 293 292 295 297 306 306 306 305 311 310 307 312 312 316 321 322
321 321 320 320 320 319 317 316 315 314 313 315 315 315 315 307 296 305 328 327 325 317 306 302 301 297 294 294 296 292 296 297 298 309 307 306 307 305 305 309 318 317 319 319 319
319 319 319 319 319 318 316 315 315 314 313 314 315 315 307 300 302 316 327 326 318 308 303 302 301 300 294 294 294 294 297 298 302 308 307 310 305 307 307 314 318 319 319 318 319
319 318 318 318 318 318 316 315 314 314 313 314 315 314 303 292 313 319 314 311 308 304 303 303 303 303 299 297 296 301 299 306 306 308 309 306 306 309 308 318 317 317 316 316 316
320 319 318 318 317 317 316 314 313 313 313 314 314 309 303 296 311 313 312 307 305 304 304 306 306 303 301 298 303 302 296 304 305 305 305 307 300 304 311 317 316 315 316 316 316
321 319 317 317 316 315 314 313 313 313 314 314 313 304 301 311 312 313 309 309 308 306 306 307 306 304 302 302 301 296 294 292 302 305 305 302 294 302 311 313 313 316 317 317 316
319 319 317 315 314 314 313 313 313 314 314 314 303 303 301 314 311 315 311 308 308 306 306 309 305 300 301 295 291 292 287 290 298 304 302 299 295 302 309 313 312 315 316 315 315
318 318 317 315 314 312 311 312 312 311 311 311 308 295 302 304 311 311 309 309 307 306 305 303 298 294 294 292 285 287 289 288 290 294 300 299 295 304 306 310 311 309 314 315 314
317 318 317 315 314 312 309 305 303 303 304 299 296 297 301 308 310 308 308 307 306 303 296 300 293 290 292 295 296 295 292 291 294 298 297 296 296 302 304 305 305 305 308 315 316
316 317 317 315 313 312 307 301 304 305 297 306 306 305 308 310 304 305 308 302 301 296 299 295 291 297 299 299 298 296 293 294 295 297 295 294 294 299 303 305 307 306 306 309 317
315 316 316 314 312 309 303 305 311 308 295 302 308 307 308 309 304 302 305 302 298 296 296 292 296 301 300 297 295 294 292 293 294 294 292 293 291 294 298 305 306 308 309 310 311
313 315 314 311 306 307 305 311 311 308 292 297 304 307 309 305 300 307 305 304 299 297 296 295 299 298 296 295 295 291 296 295 294 291 284 290 283 291 295 300 304 307 306 308 309
312 314 312 312 306 307 312 311 310 308 277 295 304 311 304 300 300 301 306 303 297 298 297 294 296 295 294 295 298 294 298 295 295 291 288 289 285 288 294 294 301 305 307 309 309
312 313 312 309 307 307 310 313 312 288 279 296 303 300 298 300 300 300 302 304 302 299 298 296 300 297 296 300 299 299 296 294 293 291 282 289 286 286 291 295 299 306 307 307 307
311 313 311 312 303 310 312 311 292 281 295 295 296 298 296 295 297 297 296 295 293 290 290 294 295 298 301 295 298 296 290 282 282 281 281 291 288 290 295 298 299 300 304 304 308
310 312 312 312 310 309 314 303 286 292 294 301 298 297 293 296 295 296 293 291 294 293 290 288 286 296 300 296 293 293 290 283 280 279 282 291 286 291 298 300 300 301 301 302 306
310 309 310 312 312 307 307 292 287 293 299 294 296 292 292 295 295 293 291 291 293 295 290 288 289 297 300 300 298 294 289 293 286 285 283 286 290 295 298 299 300 300 303 305 307
301 304 306 313 312 304 300 293 295 301 303 300 291 293 289 291 291 291 290 294 294 296 297 294 288 296 298 300 300 296 297 287 286 281 280 283 284 287 294 296 298 299 300 305 307
301 298 307 312 311 298 291 292 297 303 303 300 295 292 293 291 292 289 291 294 296 298 298 297 291 290 297 294 293 293 290 290 289 284 280 278 284 291 295 297 297 299 300 303 307
299 291 308 311 296 293 290 295 299 300 303 302 301 298 294 293 291 291 291 294 298 301 295 297 291 284 292 297 299 295 292 291 283 283 282 280 283 294 294 296 297 301 301 304 308
293 297 309 307 290 289 293 295 298 298 298 299 299 300 298 293 290 292 293 300 301 299 296 297 290 282 287 292 294 292 294 294 291 285 283 279 283 295 294 294 296 299 302 305 307
295 290 299 302 300 294 291 293 294 301 298 301 300 301 298 294 296 294 296 301 302 300 301 299 291 288 284 288 291 288 293 293 291 282 283 283 287 293 295 294 295 295 298 303 307
295 292 298 291 292 295 294 294 293 294 299 299 296 298 297 292 292 293 297 298 300 300 298 297 289 289 290 291 294 292 292 293 290 290 285 289 288 293 293 294 294 294 296 299 305
291 294 298 294 296 294 293 291 292 295 296 295 294 298 297 294 294 292 297 296 296 297 295 296 288 289 287 291 290 289 291 291 291 291 291 290 290 293 293 293 295 295 296 297 299
297 299 298 295 294 292 291 292 293 297 298 299 299 298 296 298 300 298 300 301 299 297 293 292 287 285 283 286 285 282 287 289 291 292 292 286 291 292 293 294 293 295 297 297 298

GFSSW_sfc_thetae_036.txt.gz
Theta_e
322 322 322 321 320 319 318 318 317 316 315 315 315 315 316 316 313 307 301 308 309 319 320 304 303 302 299 296 297 293 288 285 287 289 294 307 306 311 317 314 318 320 320 324 328
323 323 322 322 320 319 319 318 317 316 315 314 315 315 316 316 307 303 314 318 321 321 305 300 300 298 293 293 294 292 287 289 294 293 300 306 304 310 312 312 313 317 323 326 326
323 323 322 321 320 319 318 317 316 316 315 314 314 315 316 312 302 306 325 323 322 321 304 303 302 300 294 293 293 291 290 294 296 297 305 304 305 310 311 306 312 314 318 322 323
322 321 321 321 320 319 318 316 316 315 314 314 314 315 315 305 294 302 329 327 325 315 304 300 299 296 293 291 294 290 295 296 297 307 305 304 307 305 305 309 317 318 320 322 320
320 320 320 320 320 318 317 316 315 314 314 314 315 315 307 295 298 316 326 325 316 308 302 301 299 298 293 293 293 292 295 298 300 307 306 308 305 307 309 315 317 318 318 318 320
320 320 319 319 319 318 317 315 314 314 313 314 315 314 302 289 309 315 315 309 307 302 301 301 301 302 298 296 296 298 299 302 306 306 308 307 307 306 310 315 315 316 315 317 318
318 319 319 319 318 317 316 315 314 313 314 314 314 309 301 295 310 307 310 306 306 303 302 304 305 300 300 297 301 300 298 302 304 306 305 305 298 304 313 316 313 313 314 314 317
317 318 318 317 317 316 315 314 313 314 314 314 313 303 299 307 309 312 309 308 307 305 304 305 304 302 299 300 298 293 293 292 301 304 304 300 292 306 314 313 311 312 314 315 314
316 317 317 316 315 314 314 313 313 314 314 313 305 301 296 310 306 311 311 308 306 304 304 308 303 298 298 293 290 291 285 290 297 303 302 297 294 305 312 313 311 312 314 315 314
315 316 317 316 315 313 312 312 312 311 311 311 308 295 297 301 308 309 309 309 306 305 303 301 297 293 292 291 285 287 287 287 288 294 299 298 293 302 309 311 312 312 313 314 313
314 315 316 316 315 313 308 305 301 301 304 300 295 293 297 306 309 305 307 306 305 302 295 298 292 289 291 293 295 293 291 290 291 295 295 297 296 301 306 308 309 309 311 313 313
314 315 315 316 315 312 307 300 304 304 297 303 304 301 305 308 305 305 306 300 300 295 297 294 290 295 297 296 296 294 291 291 294 294 294 292 293 302 303 307 309 310 309 312 315
312 313 314 315 312 309 303 304 311 310 295 299 304 304 306 308 303 303 303 300 297 294 295 291 293 299 297 294 293 292 290 291 291 294 291 292 289 296 300 304 306 309 310 311 313
311 311 312 312 307 305 303 310 312 309 290 295 301 305 307 307 300 306 304 302 297 295 295 293 297 297 294 293 294 289 295 294 293 289 284 289 282 289 295 302 302 306 305 308 310
310 311 312 312 306 304 310 311 309 307 278 294 302 310 306 300 299 300 304 301 296 297 296 293 294 294 292 294 296 293 296 294 293 289 287 288 285 287 293 293 301 304 306 307 309
310 311 312 310 308 306 310 312 310 291 278 291 302 299 296 298 298 298 300 303 300 297 296 294 298 296 295 297 297 298 294 292 291 289 282 287 285 286 290 294 299 304 306 308 308
310 310 311 312 306 308 312 309 294 282 293 292 296 297 294 294 295 295 295 295 292 288 288 292 294 296 299 293 296 293 289 282 281 281 281 289 286 289 294 294 297 298 303 307 308
309 309 310 312 311 307 312 301 285 290 291 299 296 295 291 294 293 294 292 290 292 292 288 287 285 295 298 295 292 291 289 282 279 278 282 289 285 290 295 298 299 299 299 303 304
308 302 306 311 313 309 304 290 287 290 297 293 294 291 290 293 293 292 291 290 293 294 289 286 287 295 298 298 295 291 287 291 285 284 282 284 289 292 295 297 299 299 299 298 302
301 300 298 312 313 305 296 291 296 297 302 299 289 292 288 290 290 290 289 293 292 296 296 293 286 293 296 298 297 293 295 286 285 280 279 282 283 285 292 293 296 298 299 301 302
300 294 298 311 311 300 288 291 296 302 301 297 294 292 292 290 290 288 290 292 294 294 295 293 289 288 295 292 291 291 289 288 288 284 280 277 283 290 292 295 295 295 299 300 304
298 286 305 310 296 297 292 293 298 300 302 300 299 298 293 292 290 290 290 293 296 298 293 295 290 283 290 295 296 293 291 290 282 282 281 280 282 293 293 293 294 297 298 300 304
293 292 307 305 289 290 295 294 296 297 297 297 297 299 297 292 287 291 292 296 298 297 294 296 288 282 286 290 292 291 292 292 289 284 282 278 283 293 293 294 294 295 297 300 305
294 286 297 299 298 292 291 291 291 299 297 298 297 299 296 293 293 290 292 299 300 298 300 298 290 287 283 287 290 287 291 291 289 282 283 282 286 291 293 293 295 295 294 296 303
294 288 295 288 291 293 293 292 290 291 298 298 295 297 295 291 290 291 295 297 297 299 296 295 287 288 289 290 291 290 291 290 289 288 285 288 287 292 293 293 293 293 293 296 302
290 290 295 292 293 292 293 291 291 293 295 293 293 296 297 293 293 291 295 294 294 295 294 293 288 288 286 289 289 288 290 289 290 289 289 289 288 293 292 292 293 293 296 297 299
294 295 296 292 292 290 290 291 292 295 297 298 296 295 294 297 300 299 299 298 296 294 292 290 287 285 283 285 286 282 286 289 289 290 291 286 291 292 291 292 292 294 296 295 295

GFSSW_sfc_thetae_039.txt.gz
Theta_e
323 323 322 322 321 320 319 319 318 317 317 316 315 315 316 316 314 308 305 311 312 318 319 309 308 307 305 304 303 301 297 293 293 293 297 310 310 314 320 317 318 321 322 325 324
324 324 324 322 320 319 319 319 317 317 316 316 315 315 316 316 308 306 316 318 321 322 307 305 304 302 301 301 302 301 296 295 299 299 301 309 310 313 314 314 314 318 325 324 323
325 324 323 322 321 319 319 318 316 316 316 315 315 316 316 314 304 309 325 321 322 322 308 308 306 304 300 300 300 298 296 298 300 300 307 308 308 313 312 310 314 314 318 322 323
320 322 323 322 321 320 318 317 316 316 315 315 315 316 316 309 299 307 328 328 324 318 308 305 303 302 299 298 300 297 299 299 300 308 308 307 310 311 310 312 319 320 321 322 320
317 319 321 322 321 319 317 316 316 316 315 315 315 316 310 299 297 320 326 325 319 310 305 304 303 303 299 299 298 297 299 301 304 309 309 310 307 309 311 317 321 321 321 320 321
316 317 319 321 320 319 318 316 315 315 314 314 315 314 305 294 312 319 317 313 311 307 305 305 305 305 302 301 299 302 302 306 308 309 310 309 310 310 313 318 317 317 317 320 320
316 316 317 319 320 318 317 316 315 314 314 314 315 309 303 298 313 314 313 310 309 307 305 306 308 305 305 302 304 303 302 305 307 308 308 308 303 306 315 317 315 316 317 319 319
315 315 315 316 318 317 316 315 314 314 314 314 313 307 300 308 311 313 311 311 310 309 307 308 308 306 304 305 302 297 298 295 304 307 307 304 298 308 316 315 313 315 316 316 318
314 314 314 315 316 316 315 314 313 314 314 313 307 306 297 309 306 311 313 310 308 307 307 308 308 303 303 299 296 296 292 294 301 307 306 303 299 308 316 314 312 314 315 316 315
313 313 314 314 315 315 312 312 312 311 312 311 308 300 300 302 309 312 313 312 308 308 306 305 302 300 298 297 291 293 293 295 295 299 304 302 300 308 313 313 312 314 315 316 317
313 313 314 314 315 314 310 307 302 302 306 303 301 297 297 307 312 308 310 308 308 306 300 302 299 295 297 298 297 297 296 294 296 300 300 302 301 306 311 312 312 313 315 316 318
312 313 313 314 315 312 310 303 303 306 298 305 305 303 304 309 304 308 310 304 304 299 301 299 296 299 299 299 298 297 295 294 297 298 298 297 297 302 309 311 313 314 315 317 318
311 311 311 312 313 310 307 305 311 311 299 300 304 303 305 308 303 305 306 303 301 297 299 296 298 301 299 297 296 296 295 294 295 297 297 296 295 299 305 309 312 314 316 316 317
310 310 309 312 309 308 304 311 312 311 292 294 299 304 307 308 302 309 306 305 301 297 298 298 300 299 298 297 297 294 298 297 295 294 290 294 289 293 300 305 307 311 313 314 316
309 310 309 312 306 304 309 311 311 308 280 296 302 311 307 302 302 302 306 305 299 299 299 297 298 298 296 297 299 297 299 297 297 294 293 292 291 294 296 299 305 309 311 313 316
309 310 309 309 309 308 311 314 311 293 280 291 302 300 300 299 300 301 303 306 304 300 300 298 301 300 300 300 300 300 297 295 295 294 289 291 292 293 295 299 303 308 311 312 314
309 309 309 312 305 310 314 309 292 285 294 291 296 298 296 295 296 298 298 298 296 292 293 296 298 301 301 298 300 298 294 289 287 288 287 293 291 295 299 299 302 304 308 313 315
308 308 308 309 313 311 312 298 285 290 292 298 298 296 293 295 296 296 295 294 297 295 291 290 289 297 301 300 297 296 295 290 282 283 287 292 289 295 301 302 304 304 304 305 311
307 305 303 306 311 310 302 288 288 292 296 295 296 292 292 294 295 295 294 295 297 297 293 290 290 299 301 301 300 295 293 295 289 288 288 290 293 298 300 302 304 304 305 304 306
301 300 300 308 312 306 296 290 294 297 301 300 291 294 289 291 292 293 292 295 295 298 301 297 290 296 299 302 301 298 298 291 291 284 282 287 288 291 296 298 300 303 305 306 308
299 292 300 307 310 299 289 291 295 300 302 298 296 295 293 291 293 291 292 295 297 296 299 297 294 292 299 297 295 295 294 292 293 290 286 283 288 297 298 300 301 302 303 306 308
296 286 300 306 292 295 290 294 297 297 302 300 301 299 296 294 292 292 293 296 297 298 295 299 295 290 293 298 299 297 296 295 291 287 287 287 288 298 300 299 299 301 302 306 308
291 291 301 301 286 288 294 294 296 295 298 298 298 300 300 295 291 293 294 298 298 298 297 298 292 288 290 294 296 296 296 294 292 291 287 288 290 297 298 300 300 300 302 303 308
292 285 293 296 295 291 290 290 291 298 297 300 299 301 299 296 296 292 293 298 299 299 300 300 293 291 287 291 294 292 294 294 295 289 290 290 293 297 300 299 301 302 301 301 303
293 288 293 285 288 290 292 291 290 291 297 299 296 298 296 292 294 292 296 299 300 300 300 300 292 292 292 293 294 293 294 293 293 294 292 294 291 297 300 300 300 299 299 303 306
289 289 293 292 291 290 292 290 290 292 294 294 294 297 297 295 296 293 297 297 297 298 297 297 292 292 290 292 293 292 293 294 294 293 293 293 293 299 299 298 298 298 302 302 302
296 294 293 291 290 287 288 290 291 295 296 297 297 296 295 297 301 301 302 302 301 298 295 294 291 289 287 289 290 287 291 293 293 294 296 292 298 298 297 297 298 299 299 298 297

GFSSW_sfc_thetae_042.txt.gz
Theta_e
324 324 324 323 322 321 320 320 319 318 317 317 317 316 316 317 316 313 312 315 315 318 319 315 313 312 312 309 310 309 301 298 298 299 301 311 308 318 322 319 321 324 325 329 326
321 324 325 324 322 320 320 319 318 318 318 317 317 317 317 317 313 311 317 320 322 322 312 310 307 309 307 307 309 305 301 299 304 304 303 307 310 315 316 316 318 320 324 325 327
318 319 321 324 322 321 320 318 318 318 318 317 317 317 316 316 310 314 323 321 323 321 312 312 309 307 304 306 306 305 301 305 305 306 305 306 312 316 314 312 317 317 318 322 323
316 317 318 321 323 321 319 317 318 318 317 316 316 317 316 315 299 314 329 326 324 320 312 311 310 307 305 303 306 301 306 306 305 308 308 309 313 312 315 317 322 324 322 321 319
315 316 316 318 321 321 319 318 317 317 317 316 316 316 315 305 303 321 328 327 319 316 310 309 308 307 303 305 305 303 305 307 309 309 313 313 311 311 315 320 323 323 322 320 319
315 315 317 318 319 320 319 318 317 316 316 316 316 315 309 299 315 322 320 317 316 313 309 311 309 310 307 306 304 307 306 311 311 311 312 311 312 314 318 322 320 321 319 319 317
314 315 315 316 317 318 319 318 316 316 316 315 315 313 307 304 315 321 317 314 315 313 309 311 312 310 309 306 308 307 304 309 310 312 312 313 307 311 319 319 317 317 320 318 317
314 314 314 314 315 316 317 316 315 315 315 315 314 312 304 311 316 316 318 315 315 314 311 313 312 311 309 310 306 304 304 298 306 311 312 311 302 314 319 317 316 317 317 320 318
313 313 313 313 313 314 315 315 315 315 314 314 311 310 302 312 308 312 318 312 316 314 313 311 312 309 308 303 300 302 297 298 301 311 310 309 303 312 318 315 314 315 316 318 319
312 312 312 313 313 313 314 313 315 312 314 314 312 304 307 303 310 316 316 314 312 312 310 309 309 305 304 301 293 296 297 299 299 306 309 307 305 311 316 315 313 315 315 316 319
312 312 312 313 313 314 315 318 311 308 310 307 307 304 301 309 316 314 317 314 313 310 304 308 303 299 300 301 302 301 299 298 301 304 303 303 304 307 314 315 314 314 316 317 317
311 311 312 311 312 314 317 312 310 310 302 309 308 308 310 310 306 311 315 309 307 303 306 304 300 303 304 303 302 301 299 298 301 303 302 302 301 306 312 314 315 315 316 317 318
310 310 311 310 313 313 315 314 317 316 304 305 308 306 307 308 305 307 311 309 305 302 303 301 302 305 303 302 300 301 299 298 298 302 302 300 299 302 309 315 317 318 318 319 319
310 310 310 310 308 315 311 316 317 317 298 298 300 305 308 308 303 311 313 308 305 302 303 303 305 302 302 300 302 297 302 301 300 299 294 300 292 300 305 308 313 315 318 318 319
310 309 309 309 309 311 314 319 318 314 284 299 302 312 309 304 304 306 313 308 302 302 303 300 302 302 300 301 303 299 303 301 301 299 298 297 295 299 302 302 307 313 316 319 319
310 309 309 309 308 314 318 320 315 297 283 294 304 302 301 304 303 306 306 310 309 304 305 303 306 305 303 304 304 304 302 301 302 300 292 296 296 297 300 301 304 309 314 317 320
309 309 308 310 305 317 319 314 295 287 296 293 298 302 300 298 300 302 301 301 298 295 297 301 302 305 305 302 304 303 299 293 290 291 290 298 295 298 303 305 307 308 310 315 319
308 308 307 309 311 317 313 301 286 290 293 299 300 301 297 298 300 301 300 298 302 300 297 294 292 300 305 303 300 301 300 293 284 287 291 296 292 299 305 307 309 311 312 313 314
308 305 304 307 312 311 303 290 288 292 297 296 297 296 296 297 298 299 299 298 301 302 296 295 294 303 304 305 304 300 296 301 294 295 292 294 297 302 304 304 306 308 311 312 313
304 299 300 308 312 303 296 291 292 298 300 300 293 298 293 294 295 297 298 301 300 303 305 300 294 301 303 306 305 302 304 295 297 286 285 292 293 296 299 301 304 305 308 312 314
302 292 303 309 308 295 288 293 294 301 303 300 297 295 297 295 295 296 297 299 303 302 305 302 299 297 302 300 299 300 298 299 298 296 289 287 292 302 302 303 305 306 308 311 314
298 287 305 308 289 291 290 296 297 298 304 302 303 302 298 298 295 295 296 299 304 305 299 303 300 295 297 302 304 302 300 300 294 291 295 293 293 304 306 306 306 307 307 311 314
291 292 305 304 283 286 293 295 297 297 299 301 300 303 303 299 294 298 299 304 304 303 301 303 298 292 293 297 301 299 300 300 300 298 294 292 294 304 305 306 308 308 308 308 311
292 285 293 295 297 291 290 292 292 299 298 302 301 303 302 299 300 296 298 301 303 304 302 304 300 296 291 294 298 296 298 300 299 295 295 295 297 302 304 305 307 308 309 308 309
293 289 292 286 289 292 294 293 291 292 299 301 300 301 300 296 297 296 298 300 301 301 303 304 296 298 298 298 298 297 297 299 297 299 295 297 297 301 303 305 306 307 306 307 309
288 292 297 292 292 291 293 291 291 294 295 295 297 300 301 297 298 296 299 300 300 303 302 304 296 299 295 298 298 296 298 298 299 299 299 299 298 305 307 307 306 305 306 308 309
297 300 297 292 291 289 291 291 292 296 297 298 299 297 298 300 303 303 303 303 303 302 301 301 298 295 291 296 296 291 297 298 300 301 301 296 301 305 305 305 306 306 307 307 307

GFSSW_sfc_thetae_045.txt.gz
Theta_e
322 322 325 325 324 322 321 320 319 319 319 318 318 318 318 318 316 318 315 316 318 322 317 316 315 314 314 312 312 311 302 298 299 301 302 309 308 317 321 319 322 325 327 330 330
319 320 321 322 323 322 321 320 319 318 319 319 318 318 318 317 316 313 320 322 322 323 315 311 309 311 309 309 310 306 303 301 306 307 305 308 311 315 316 316 318 323 328 328 329
316 316 317 319 321 322 322 320 319 319 319 318 317 317 317 317 313 312 323 323 323 322 316 313 313 309 307 309 308 307 302 306 307 308 309 308 310 316 315 311 309 318 321 324 326
315 315 315 316 319 321 321 319 319 319 319 318 317 317 317 317 300 320 327 324 325 319 315 313 310 307 306 305 309 304 308 308 308 308 309 310 310 312 315 317 323 326 323 322 320
315 315 314 315 317 319 319 319 319 319 318 318 317 317 317 310 309 325 329 326 318 317 313 312 310 310 305 305 307 305 307 309 311 310 313 315 313 312 316 321 325 323 321 320 320
314 314 315 315 315 317 318 318 318 318 317 317 317 315 313 304 315 322 323 318 317 315 314 313 312 312 309 307 306 308 308 310 311 312 313 311 313 315 319 322 320 321 319 318 318
313 314 314 315 315 315 316 317 318 317 317 317 316 315 309 308 316 322 319 316 317 316 312 315 315 311 311 307 310 308 305 309 308 310 310 314 302 310 319 319 316 318 320 319 319
313 313 313 313 313 313 314 315 316 317 317 315 315 315 306 316 317 317 320 315 316 317 315 316 316 312 311 312 308 304 305 299 307 311 312 309 295 313 318 316 315 315 320 319 320
312 312 312 312 312 313 314 314 316 317 315 314 315 313 305 314 309 313 321 314 314 315 316 315 314 310 311 304 301 303 298 299 301 309 310 308 300 314 317 316 314 314 317 319 318
312 312 312 312 312 312 313 314 318 313 315 318 315 308 311 306 309 311 319 317 314 313 311 312 310 306 305 302 294 297 298 300 300 302 307 305 305 312 316 314 314 313 316 318 315
312 312 311 312 312 311 315 318 313 312 313 306 309 306 304 310 316 312 315 314 314 311 305 309 304 301 303 304 303 302 300 299 302 306 303 303 304 306 315 315 312 314 314 316 317
312 311 311 311 311 312 317 311 312 313 304 310 310 310 313 311 307 310 317 308 309 304 307 306 301 306 305 304 302 302 299 299 302 304 303 303 302 306 312 314 314 313 315 314 316
312 311 311 310 311 312 314 313 319 319 304 303 308 308 308 311 305 307 312 309 306 304 304 302 304 307 303 302 301 301 300 299 299 304 305 303 301 303 309 314 315 315 315 317 316
310 310 310 310 305 311 311 317 320 319 297 298 304 307 309 309 304 311 313 310 307 303 304 303 307 304 303 302 303 298 304 302 301 300 295 303 292 299 306 308 313 314 315 316 318
309 310 309 309 307 311 316 321 322 318 283 301 304 313 310 305 306 306 313 309 303 303 304 301 303 303 301 302 304 301 304 303 302 301 300 299 295 300 304 303 308 313 315 316 318
309 310 309 307 308 312 321 322 319 296 284 297 305 303 304 305 305 308 307 310 309 304 305 304 309 306 305 306 305 306 303 303 303 301 293 298 297 295 300 302 305 311 315 317 317
308 309 309 309 304 313 316 314 294 286 297 295 299 303 302 301 302 304 302 301 299 296 298 301 303 306 307 302 306 304 301 293 291 292 291 299 296 298 303 306 307 308 311 316 319
308 308 307 310 312 311 309 301 286 290 292 301 300 303 299 302 302 302 301 298 302 302 299 296 294 302 306 303 301 302 301 295 285 289 292 299 293 298 307 308 309 311 312 313 316
307 307 306 309 312 309 298 288 289 292 296 296 298 298 299 300 300 300 300 298 301 303 297 297 296 305 305 306 305 302 298 304 296 298 293 296 299 303 305 305 307 308 311 314 315
303 302 302 308 312 306 292 289 293 297 298 299 293 299 297 298 297 299 298 302 300 304 306 302 295 302 304 307 307 304 306 296 298 288 287 293 295 296 301 302 304 306 308 311 315
301 294 304 309 308 296 285 291 296 299 300 297 297 296 299 299 298 297 298 301 303 303 306 304 300 299 304 301 300 301 300 301 300 297 290 289 294 303 302 304 305 307 308 310 312
297 288 305 308 289 292 288 294 297 298 300 299 301 300 299 301 298 297 297 300 304 305 301 304 301 296 299 305 306 304 301 301 295 293 296 295 295 307 306 307 307 308 309 311 313
292 293 306 305 284 289 292 293 297 297 297 298 299 303 304 300 297 299 300 304 306 304 302 304 298 294 295 300 304 301 303 303 302 301 295 293 295 306 307 306 308 308 310 311 312
293 286 293 296 297 292 290 291 291 298 298 299 300 302 301 301 303 299 299 302 307 304 304 305 300 297 293 297 300 297 299 301 300 296 295 296 298 302 305 306 307 309 311 311 312
293 290 294 285 290 294 293 292 290 291 298 299 297 299 298 296 298 298 301 302 302 303 304 304 297 299 299 301 300 299 299 300 298 299 295 298 298 302 305 306 307 310 309 309 310
288 293 296 294 294 293 292 291 290 293 295 294 295 299 301 297 299 297 300 300 298 302 302 305 297 299 296 300 300 297 299 299 299 300 299 300 299 306 307 308 307 308 308 309 311
296 300 296 293 292 292 292 292 291 295 297 298 298 297 298 301 306 305 305 304 303 303 301 301 300 296 293 298 298 293 297 298 299 301 301 297 302 306 305 306 307 308 309 310 312

GFSSW_sfc_thetae_048.txt.gz
Theta_e
319 320 321 321 322 323 323 322 321 320 320 320 319 319 319 318 316 316 315 319 322 323 318 317 316 314 313 311 311 310 299 297 299 300 302 308 307 313 314 315 316 316 320 326 326
317 317 317 317 319 320 322 322 321 320 320 320 319 319 318 317 314 312 322 324 323 323 312 312 309 311 308 308 309 305 300 301 305 306 304 306 307 312 308 313 309 309 318 326 326
315 315 315 315 317 319 320 320 320 321 320 320 319 319 317 317 312 313 325 325 323 322 314 315 312 309 305 308 307 306 301 305 306 307 308 306 308 311 311 310 309 310 318 323 323
315 314 314 315 315 317 318 318 320 321 320 320 320 319 317 317 301 319 327 325 325 317 313 311 309 306 304 304 308 302 306 307 307 309 308 306 312 311 316 318 318 320 322 321 320
313 314 314 314 315 316 316 317 318 320 320 319 319 319 315 309 310 323 329 324 316 314 312 310 308 307 304 306 306 304 305 307 310 310 309 311 309 309 316 321 323 321 320 320 318
313 311 313 315 314 315 315 315 316 317 319 319 319 317 313 302 317 322 324 319 314 313 312 312 310 312 307 307 305 307 307 306 311 309 311 306 306 308 316 320 320 320 319 318 317
313 313 313 313 314 314 314 314 315 316 318 318 318 316 310 307 317 317 320 317 314 314 311 314 314 310 310 307 310 307 302 305 308 310 308 309 302 303 310 317 317 318 317 318 316
313 312 311 312 313 313 313 313 314 315 318 318 316 314 306 317 319 316 318 316 316 316 315 316 315 311 309 310 307 303 303 298 306 309 310 307 297 305 312 314 313 317 318 316 316
314 312 311 310 311 312 312 312 313 316 317 316 313 313 305 315 312 314 317 313 312 314 315 315 313 308 308 303 300 301 295 299 302 308 308 307 299 306 311 314 311 315 315 316 317
313 313 312 311 311 311 311 310 314 316 317 318 315 306 309 307 312 312 314 317 311 311 309 309 307 303 303 299 292 296 297 299 299 305 305 304 304 308 314 313 311 313 314 314 314
312 313 312 311 311 311 310 313 309 312 314 307 305 304 306 313 314 308 311 314 312 308 301 306 301 298 301 303 302 300 298 299 302 306 305 302 303 306 308 310 311 311 313 313 315
311 311 312 311 311 311 309 308 307 313 302 307 308 310 311 314 306 309 311 307 305 301 305 302 299 305 306 305 302 300 298 298 302 306 303 301 301 307 308 311 311 311 313 312 315
310 311 312 311 311 308 306 309 316 317 302 301 304 303 306 309 305 306 309 307 303 301 302 299 303 308 304 302 299 299 298 299 299 303 305 302 298 303 310 311 312 313 314 315 314
309 310 310 310 305 309 305 314 316 319 296 294 299 304 306 307 301 310 311 307 303 300 302 302 306 304 303 299 301 296 303 302 300 298 293 302 291 300 303 306 310 311 313 314 315
309 310 309 309 306 307 312 316 319 317 280 298 302 313 310 303 305 305 311 308 301 301 303 300 302 302 301 301 303 299 305 303 301 298 298 298 295 298 303 302 307 311 313 315 316
309 309 308 306 307 308 313 315 316 294 282 295 305 302 302 304 303 306 305 309 308 303 303 302 307 305 304 305 305 306 303 302 302 299 291 297 296 295 299 301 305 311 314 314 316
309 309 308 306 302 312 315 307 292 284 295 292 298 303 301 301 301 302 301 300 298 294 296 300 301 306 307 302 305 303 299 292 290 290 290 299 295 298 303 305 307 310 312 315 316
308 308 307 305 310 310 307 298 284 289 291 301 300 301 298 301 301 301 300 297 302 300 296 293 292 301 306 302 300 300 299 294 286 286 291 299 293 297 306 308 309 309 311 315 316
308 306 304 307 311 309 298 286 287 290 295 293 298 296 298 301 300 300 299 298 301 301 295 294 295 304 305 305 304 300 296 303 295 296 292 295 298 304 306 305 306 308 310 312 313
303 301 301 310 310 304 291 287 290 295 297 296 290 295 294 298 298 298 298 302 301 304 304 299 295 302 304 305 305 302 305 295 297 288 286 292 293 294 300 302 304 305 309 312 315
301 293 303 308 310 296 285 288 292 297 298 294 293 293 295 295 299 297 298 302 304 303 303 301 298 298 302 299 298 299 298 300 300 296 290 288 292 302 303 305 305 308 308 313 315
297 288 305 308 290 291 288 292 295 294 298 297 297 295 295 298 297 299 297 301 306 305 299 302 301 294 297 303 305 303 300 301 294 292 297 296 293 307 306 307 308 308 310 312 314
292 292 304 304 283 286 292 291 294 293 294 295 295 297 299 297 295 300 301 305 306 304 301 302 297 291 294 300 303 299 302 301 302 300 295 290 293 306 307 306 308 309 309 310 312
292 285 294 296 296 290 289 290 289 295 294 296 296 298 297 297 301 298 300 304 308 304 303 305 299 295 291 296 300 297 300 302 300 294 294 295 297 302 304 305 306 308 309 309 311
293 289 293 285 288 292 292 291 289 289 294 296 295 296 295 294 297 297 301 302 304 304 305 304 297 298 298 299 300 299 299 299 297 298 295 297 297 301 304 306 307 310 310 309 309
287 291 296 293 292 291 292 290 289 291 292 291 293 296 297 295 297 295 300 301 300 303 302 303 296 298 295 299 299 297 300 299 299 299 299 299 298 305 306 307 307 307 308 308 309
295 299 296 292 291 289 290 291 291 294 295 295 296 296 296 298 301 304 305 305 305 303 301 300 299 295 290 297 296 291 298 299 299 300 300 296 302 305 305 306 306 307 308 308 309

GFSSW_sfc_thetae_051.txt.gz
Theta_e
318 317 318 318 317 318 320 321 321 321 321 321 321 320 320 319 317 313 310 316 318 325 318 313 310 309 307 304 304 301 290 289 293 297 299 306 307 312 314 310 314 313 314 321 326
315 315 316 316 316 316 318 319 319 320 321 320 320 320 320 318 312 309 318 325 324 324 308 307 306 306 300 300 300 295 289 293 301 300 299 302 300 310 309 308 310 310 317 325 325
315 314 315 315 316 316 316 316 317 319 320 320 320 320 319 317 309 312 325 326 325 322 309 308 309 304 299 298 299 297 292 299 301 301 302 299 306 313 309 307 310 311 315 322 321
314 314 314 314 315 316 315 314 316 318 319 320 320 321 319 313 298 313 325 325 325 313 310 307 305 299 297 296 301 296 301 301 301 304 303 305 309 308 313 313 319 320 321 321 318
311 312 313 313 315 315 314 314 314 316 317 319 320 320 313 306 307 321 327 325 315 311 308 305 303 301 298 300 302 298 300 304 304 306 306 309 306 308 306 316 319 321 321 318 316
313 311 311 313 313 314 314 313 313 314 315 317 319 318 310 301 315 321 321 317 311 308 306 307 305 306 303 302 300 303 301 301 303 304 308 305 306 308 309 316 317 318 317 317 314
313 313 311 310 312 312 313 313 312 313 314 316 318 316 308 305 314 313 317 316 312 309 306 309 309 304 304 301 306 304 299 300 300 304 304 308 303 304 312 312 316 315 316 316 314
313 313 312 311 310 311 312 311 312 312 313 316 317 311 302 315 315 314 314 311 315 311 310 311 311 306 304 305 303 299 298 291 299 305 307 306 298 306 310 308 312 313 314 314 314
313 313 312 312 311 311 311 311 311 312 313 316 309 306 303 316 310 313 311 310 313 311 309 313 308 302 302 296 293 295 290 292 296 306 305 304 299 306 311 312 312 313 313 311 314
312 312 312 312 311 310 310 310 310 312 315 317 314 302 309 303 310 312 311 310 310 307 306 305 300 296 295 292 287 290 292 293 295 300 304 300 300 304 309 311 308 310 312 312 313
311 311 311 312 312 310 308 304 304 304 309 305 304 301 303 311 312 307 309 307 310 304 297 300 294 291 294 297 298 297 295 292 296 302 300 299 301 301 306 308 306 309 311 311 310
311 310 311 311 312 310 305 299 305 305 299 309 310 309 308 312 305 307 306 303 304 298 299 297 293 299 302 301 301 299 294 292 301 304 300 298 299 302 306 307 307 309 308 309 311
311 310 311 310 310 306 301 302 309 305 298 301 305 302 303 305 302 303 303 303 301 298 298 295 298 303 301 300 298 296 294 293 296 299 299 295 295 300 305 310 311 311 311 312 312
310 310 309 309 303 302 300 311 312 309 292 292 296 300 302 302 300 308 309 303 300 297 299 298 302 301 301 299 299 291 298 300 299 294 287 294 284 298 304 305 309 309 309 310 313
309 310 309 309 302 299 307 308 309 311 275 293 297 306 303 298 301 300 308 304 297 298 298 296 299 299 298 299 301 295 302 301 299 294 291 292 288 292 303 301 303 307 309 309 314
310 310 309 304 303 303 307 307 309 290 280 292 302 300 298 297 299 302 301 305 305 299 299 298 303 301 300 303 302 303 301 299 297 293 285 292 291 291 296 299 304 307 309 310 311
309 310 307 304 296 306 308 304 289 281 292 289 297 300 299 297 296 298 297 295 293 291 292 297 298 302 303 298 301 298 293 286 285 283 283 296 293 292 299 302 305 306 308 310 312
309 309 307 304 303 304 304 295 282 286 287 296 296 300 296 298 298 298 296 293 297 296 292 289 288 298 302 300 296 296 294 286 281 281 287 296 290 293 302 304 304 306 310 311 312
308 305 302 303 303 305 296 285 282 287 291 289 292 291 295 298 298 297 295 294 297 298 291 290 291 300 301 303 300 296 292 298 293 293 287 291 295 300 302 300 301 302 303 308 310
302 300 299 305 304 301 291 286 288 292 293 292 286 291 289 293 296 295 295 299 298 300 301 296 290 299 301 302 301 298 300 290 293 284 283 289 290 291 296 299 299 298 300 304 306
300 293 300 305 302 293 283 285 289 295 295 290 289 288 290 290 292 293 295 299 300 299 301 298 294 294 299 297 296 295 294 296 295 291 283 281 287 298 298 302 300 299 302 304 306
298 287 300 303 289 289 284 288 293 291 295 293 293 292 291 292 290 291 294 299 303 302 297 299 296 289 292 301 303 299 296 296 288 288 290 284 287 302 300 302 302 302 303 303 307
293 292 302 300 283 285 288 288 291 290 291 292 290 294 294 291 288 293 298 304 305 301 298 299 292 287 289 295 300 296 298 299 298 296 289 283 288 304 303 302 301 301 302 304 304
291 285 293 295 292 287 285 285 286 293 291 293 292 293 290 291 293 291 296 303 305 302 303 301 295 290 285 291 298 295 297 298 296 287 289 289 293 299 302 300 300 300 302 302 304
291 287 291 285 287 288 288 288 285 286 292 292 289 290 289 287 290 290 297 299 302 303 301 299 290 294 294 296 298 298 297 297 295 296 290 294 295 299 300 299 301 304 304 303 304
285 289 292 288 291 288 288 285 285 288 289 288 287 290 291 288 290 290 295 296 296 301 298 299 291 294 292 296 297 294 297 297 296 297 297 297 296 303 302 303 302 304 304 303 302
296 294 293 289 289 287 286 286 288 290 291 293 291 289 289 291 295 299 302 303 302 298 297 297 292 290 286 294 293 287 293 296 298 299 297 291 296 301 301 301 302 302 303 303 303

GFSSW_sfc_thetae_054.txt.gz
Theta_e
316 316 316 316 317 316 316 317 317 318 319 321 321 321 321 320 318 312 306 312 316 323 321 310 306 305 303 300 301 298 289 286 289 294 297 305 307 310 313 312 313 314 315 319 324
314 314 314 314 316 316 316 316 315 316 318 319 320 320 320 319 313 308 316 326 326 326 307 304 304 305 299 297 298 294 287 291 296 297 300 308 305 308 309 309 309 310 317 323 322
314 313 313 312 315 315 315 315 314 315 316 318 319 320 319 318 307 307 324 326 327 324 306 306 307 304 297 296 295 293 291 298 298 301 303 305 306 312 306 303 311 312 314 322 319
312 312 313 312 313 314 314 314 314 313 314 315 318 318 319 312 293 311 326 326 326 311 306 305 303 297 294 294 296 292 298 299 299 302 305 305 308 309 310 313 320 320 321 320 318
314 313 312 311 312 313 313 313 314 314 313 313 316 318 313 305 305 316 326 324 315 309 305 303 301 299 295 296 299 297 299 302 302 307 305 308 306 307 310 316 319 320 319 318 317
313 313 313 313 312 312 312 312 312 313 313 313 315 317 308 299 310 314 319 315 309 305 305 304 303 303 300 299 298 301 301 300 300 305 306 304 305 306 308 317 316 317 315 315 314
313 313 313 313 313 312 312 312 311 312 313 313 314 315 306 303 311 311 317 313 310 307 304 306 306 302 302 299 304 302 296 298 298 302 303 304 299 302 311 316 314 313 314 314 314
313 313 313 312 312 312 312 311 311 311 312 313 313 312 301 313 312 312 311 310 312 311 308 308 307 304 302 302 300 297 295 290 296 304 304 301 295 302 311 313 311 312 312 312 312
312 312 313 312 311 311 311 311 311 311 312 314 310 306 299 316 310 312 311 307 309 311 308 310 305 301 300 294 290 292 288 291 294 301 304 301 297 303 307 309 311 310 310 310 311
312 312 312 312 311 311 310 310 310 311 310 316 314 301 304 300 308 310 310 309 306 307 304 302 299 295 293 290 284 288 289 288 289 300 301 300 298 300 309 311 310 309 308 309 309
311 312 311 311 310 311 307 302 298 301 306 304 304 301 302 306 312 306 309 306 304 301 294 299 294 290 292 293 295 294 293 291 295 300 301 299 298 300 304 306 308 309 307 308 310
311 311 311 310 310 310 305 298 299 298 292 303 307 307 309 310 303 306 306 300 300 296 297 295 292 297 298 298 296 295 293 293 296 301 299 297 297 299 302 305 305 308 309 309 310
310 310 311 310 309 305 301 300 305 304 294 299 304 304 306 309 302 301 303 300 299 297 296 292 296 300 298 296 295 295 294 292 293 298 296 297 294 299 304 306 309 311 311 311 310
310 310 309 308 303 301 299 306 306 305 290 292 297 299 302 302 298 306 306 299 299 297 297 295 300 298 297 296 297 292 298 296 296 292 287 292 284 294 300 301 306 309 308 308 310
310 310 309 309 300 298 303 306 308 303 271 290 296 305 302 296 299 299 304 301 296 296 297 294 297 296 295 296 299 295 300 297 297 292 289 290 286 290 300 299 303 307 308 308 311
310 310 309 304 301 302 305 306 306 290 277 291 299 295 294 295 297 299 300 303 301 296 296 296 301 298 298 300 300 302 298 296 294 291 284 290 288 288 296 300 304 306 309 310 311
309 309 308 304 294 301 304 301 288 279 290 287 296 298 294 292 293 296 294 294 291 288 289 295 295 299 301 296 299 297 291 284 283 282 282 293 290 291 299 304 306 306 307 309 312
309 308 307 305 301 301 301 294 281 286 285 293 293 297 294 294 293 294 293 289 294 293 289 288 286 296 300 297 294 294 293 285 280 280 285 294 288 292 300 302 308 309 309 310 310
308 305 302 302 302 301 293 283 283 286 290 289 290 287 293 297 297 293 292 291 294 295 288 288 289 299 300 300 298 294 291 296 290 290 285 289 293 298 299 299 301 305 307 307 309
303 300 299 302 302 298 287 284 289 293 293 292 285 289 285 289 292 293 293 296 295 298 298 293 288 297 299 299 298 297 299 289 290 283 280 287 290 290 295 296 297 298 304 306 309
301 294 300 302 303 292 282 285 289 294 294 290 288 288 289 288 290 289 293 298 299 298 299 296 292 292 297 294 293 294 292 294 293 290 282 280 286 296 296 299 297 296 301 303 308
298 287 299 303 288 287 283 287 292 291 294 292 292 290 289 290 289 289 290 295 302 301 294 296 293 288 291 297 299 295 294 294 288 287 288 283 287 298 298 300 301 301 301 303 306
293 292 300 298 282 282 286 287 290 290 290 289 289 291 291 288 285 290 292 299 302 301 297 297 291 284 288 293 296 293 296 297 296 292 288 283 287 300 299 300 302 300 299 300 305
290 285 292 294 290 286 284 284 285 292 290 291 290 291 289 287 290 288 290 296 302 302 302 300 293 290 285 288 293 292 294 296 295 286 288 288 292 297 300 300 303 300 301 300 302
290 286 290 285 286 287 286 287 284 284 290 292 288 288 287 284 286 286 291 296 300 302 301 299 290 293 294 295 295 294 295 296 293 293 289 292 294 297 299 299 300 301 302 301 301
285 288 292 287 290 287 287 285 284 287 288 287 286 288 289 286 286 285 289 293 295 300 298 299 291 291 290 294 295 292 294 296 296 296 295 295 295 301 303 301 299 301 302 301 301
297 295 293 289 288 287 285 285 287 288 289 291 290 288 286 289 291 293 295 297 299 298 295 295 292 289 286 292 293 287 292 293 294 296 296 291 297 301 300 301 300 300 301 302 301

GFSSW_sfc_thetae_057.txt.gz
Theta_e
314 314 314 314 314 315 315 315 315 314 314 315 317 319 320 319 317 312 305 310 314 324 320 306 304 303 301 298 299 296 289 285 288 289 293 307 305 308 312 310 312 314 315 319 323
313 313 313 313 314 314 314 315 314 314 314 314 315 318 317 317 312 307 315 323 324 324 306 304 303 304 298 297 296 293 287 289 294 294 295 307 304 306 307 308 309 310 317 322 320
314 313 313 312 312 313 314 313 314 313 314 314 315 315 316 316 304 303 323 325 327 323 304 304 305 302 295 295 295 292 290 294 297 297 302 304 304 309 305 301 309 310 312 319 317
312 312 313 313 312 311 313 313 313 312 312 312 313 315 316 311 289 307 327 327 327 312 304 302 301 297 292 292 295 290 295 296 297 298 304 303 306 307 308 310 318 317 316 315 315
314 313 312 312 313 314 313 312 312 313 312 312 313 314 313 303 304 312 325 324 314 306 302 301 299 297 293 294 296 294 297 299 300 302 303 307 304 307 311 315 318 318 317 315 314
313 313 313 313 313 313 313 312 312 312 312 312 312 313 307 296 306 311 317 313 307 304 303 302 300 301 298 297 296 299 299 299 298 304 305 302 303 303 309 315 315 315 314 313 314
313 313 312 312 313 313 312 312 312 312 312 312 312 309 304 299 309 308 307 309 308 305 302 304 303 300 300 297 301 300 295 296 297 302 301 303 298 300 307 314 312 311 311 313 313
311 312 312 312 312 311 311 311 312 312 312 313 312 309 298 311 309 310 309 308 310 308 307 306 305 302 300 301 298 295 293 288 295 301 302 301 294 299 310 312 309 310 311 311 312
312 312 312 311 311 310 310 310 311 312 312 312 307 306 298 313 308 312 310 305 308 309 307 309 303 299 298 292 289 290 285 288 292 300 299 299 296 300 311 312 309 309 308 308 306
311 311 312 311 310 310 309 310 310 309 309 312 312 299 302 301 305 308 309 307 304 305 304 301 298 293 291 289 283 285 287 286 288 294 299 296 298 299 304 305 309 307 307 307 307
311 311 311 311 310 309 307 303 295 298 300 300 302 302 302 306 311 306 307 304 303 300 294 296 291 289 293 293 293 292 290 289 292 297 298 297 295 299 304 307 306 306 306 306 306
311 311 311 310 310 309 305 297 297 300 293 301 300 304 308 309 302 304 306 299 298 293 295 293 290 295 296 296 293 292 290 290 294 297 298 296 295 298 301 302 307 307 306 306 307
311 311 310 310 310 304 300 300 306 305 294 298 301 299 300 306 301 300 303 298 295 293 293 291 294 298 296 294 292 292 291 291 292 295 295 294 292 296 301 304 306 309 310 308 307
310 310 309 309 301 301 298 305 305 306 287 289 296 298 302 304 298 304 303 299 297 293 295 293 298 296 294 293 294 289 296 295 293 290 286 291 283 289 298 300 304 306 308 309 309
310 310 309 309 298 297 301 303 304 303 271 288 295 304 302 296 296 299 303 298 293 295 296 293 295 294 293 294 296 293 298 296 294 290 288 288 284 288 297 297 300 304 307 308 309
309 310 309 305 302 301 302 302 303 288 276 288 296 294 294 295 294 298 297 301 299 295 295 296 297 297 296 298 298 299 296 294 292 289 283 288 287 286 293 297 300 303 307 308 308
309 309 307 304 294 300 300 299 289 279 289 286 292 293 293 291 292 295 293 293 291 286 287 292 292 296 298 294 297 295 290 283 281 281 281 291 288 289 295 301 302 303 306 309 309
308 308 306 305 301 300 298 291 281 285 284 291 291 294 290 292 292 292 292 288 293 291 287 285 283 293 298 295 293 293 291 283 279 279 283 292 286 291 298 301 304 306 307 309 309
307 304 301 302 301 300 289 282 284 286 289 288 289 287 290 295 292 292 290 290 292 293 288 286 287 296 297 298 297 292 288 294 287 288 284 287 291 296 298 298 300 304 305 306 308
301 300 299 302 303 298 285 282 288 293 292 291 284 287 285 288 290 289 290 294 294 296 296 291 286 296 296 297 297 295 297 288 288 282 280 284 287 288 294 296 298 298 303 305 308
300 294 301 303 302 292 280 282 288 292 293 289 287 286 287 287 289 288 290 295 298 296 296 294 290 290 296 292 291 292 291 292 292 287 281 280 284 294 296 298 297 296 298 304 306
298 287 300 302 287 288 282 285 291 289 293 291 292 289 287 288 287 288 289 292 300 300 293 295 291 287 290 296 297 295 293 293 286 285 285 282 286 296 297 298 298 297 298 299 305
292 291 300 298 282 282 286 286 288 289 289 289 288 290 291 287 283 287 291 296 300 298 297 298 289 285 287 290 294 291 293 294 293 290 285 283 287 298 298 297 298 299 299 299 301
288 284 291 293 289 286 284 284 284 290 289 290 289 290 288 286 289 286 288 293 296 301 302 300 292 288 284 288 292 290 293 294 293 285 285 287 291 295 297 298 300 300 300 298 299
289 286 291 284 285 287 287 286 283 284 289 291 287 287 286 283 285 284 289 291 295 301 301 297 289 292 292 293 294 294 293 292 290 292 288 290 291 296 298 299 300 302 300 299 299
285 288 292 286 290 287 287 285 284 285 286 285 285 287 287 284 285 283 286 288 289 296 296 299 289 290 288 293 293 291 293 294 293 293 292 293 291 299 301 301 299 300 301 299 299
296 294 293 289 287 286 284 286 286 288 289 289 288 287 285 287 290 290 291 292 294 293 292 292 290 288 284 290 290 285 290 293 293 295 295 290 295 300 298 299 299 300 299 300 301

GFSSW_sfc_thetae_060.txt.gz
Theta_e
314 313 312 312 312 313 313 313 313 312 313 313 313 314 315 315 315 311 303 309 312 322 319 305 302 301 299 297 296 294 288 285 287 288 292 300 301 306 310 308 311 312 313 318 321
315 314 313 313 313 312 312 313 313 312 313 313 313 314 314 315 311 306 314 323 323 325 306 303 301 302 297 296 296 292 286 289 293 293 293 296 301 303 305 306 307 308 315 321 318
313 313 313 313 314 314 314 313 313 313 312 313 313 314 314 314 303 298 324 324 325 322 304 302 304 301 295 294 293 291 289 292 295 296 295 294 302 308 304 301 306 307 309 317 317
312 312 312 312 312 313 314 313 313 313 313 312 312 313 314 310 288 305 327 327 328 313 303 301 299 295 291 291 294 289 294 294 296 296 298 300 303 304 303 305 313 314 314 317 315
313 312 311 311 312 312 312 312 312 313 313 312 312 312 309 300 301 309 326 326 314 305 301 300 297 296 291 292 294 291 295 297 299 299 300 305 303 304 308 314 316 317 316 314 315
312 313 312 311 311 311 312 311 311 312 312 312 312 312 303 293 304 310 311 310 305 302 301 300 298 299 295 295 294 297 297 297 297 300 302 302 300 302 305 314 314 315 312 313 314
312 312 312 312 311 312 311 311 310 311 312 312 312 307 300 297 306 306 308 305 306 302 301 302 301 298 298 295 299 298 293 295 295 297 300 302 297 298 305 313 312 311 310 312 313
311 312 312 311 311 311 311 310 310 310 311 312 312 305 295 309 307 308 306 306 307 306 305 305 303 299 298 299 297 293 291 287 293 299 299 300 292 296 308 310 308 309 311 311 311
312 312 311 311 311 310 310 310 309 311 312 312 305 302 295 312 306 309 308 303 304 306 305 308 302 297 296 292 289 289 284 286 291 297 298 297 294 298 307 310 307 307 308 310 307
312 312 311 311 310 310 309 309 308 309 309 308 309 296 298 295 304 307 308 306 302 303 302 300 296 292 290 289 284 285 285 285 287 292 295 294 296 297 307 308 307 306 306 308 305
311 311 311 311 310 310 307 300 297 297 299 297 299 297 301 307 310 304 306 303 300 299 293 296 291 288 292 292 291 289 288 286 289 293 293 292 293 297 300 304 302 304 307 306 305
310 311 311 311 310 310 304 296 297 299 292 299 299 299 304 307 300 302 305 298 296 292 294 291 289 294 296 294 292 291 288 288 292 295 294 291 293 295 299 301 304 305 305 305 305
310 310 310 310 309 302 298 299 306 302 293 295 298 297 297 301 297 298 301 298 294 292 293 291 293 297 295 292 291 290 288 288 290 293 292 292 291 293 299 300 306 308 308 307 306
310 310 309 309 301 299 296 303 303 303 286 287 294 297 299 302 295 303 303 299 295 292 293 292 296 294 292 291 292 287 294 293 291 288 284 290 282 288 292 298 302 304 307 307 306
309 309 309 309 297 296 298 304 302 302 272 287 295 302 303 294 294 299 302 297 293 293 294 291 293 293 291 292 294 291 295 293 292 288 286 287 283 287 296 295 298 301 304 307 308
308 308 308 304 302 301 302 300 300 287 276 286 294 294 295 296 294 298 297 298 297 295 293 293 296 295 295 296 296 298 294 292 291 288 281 287 285 285 289 295 297 300 304 307 308
307 308 306 304 297 299 299 297 284 279 289 285 288 293 292 291 292 294 292 291 289 285 286 291 292 294 296 292 294 293 289 282 281 281 281 289 286 289 294 296 299 300 302 306 309
306 306 304 306 303 300 296 288 278 285 286 291 290 290 288 291 290 292 289 287 292 290 286 285 282 291 295 293 290 291 291 283 279 279 282 289 286 291 297 299 300 301 302 305 306
305 299 302 304 302 300 291 278 281 286 289 288 289 286 288 292 290 291 288 287 291 293 287 285 285 294 295 296 296 290 287 293 285 285 283 285 290 295 297 297 296 300 302 303 306
295 295 298 304 304 298 286 280 286 292 291 290 284 287 284 287 288 288 289 293 291 296 295 291 285 294 296 296 295 294 295 287 286 281 279 283 285 287 293 295 296 297 301 303 305
297 291 299 305 303 291 281 281 285 290 291 288 286 285 286 285 288 287 290 293 296 295 295 292 288 289 294 290 289 290 288 290 290 286 281 280 283 293 294 297 297 296 298 302 303
294 285 301 303 287 287 283 286 289 287 292 290 291 289 287 287 285 287 289 292 294 298 291 294 290 285 289 294 295 291 290 292 285 283 284 282 286 294 296 297 297 297 297 296 302
290 290 300 299 282 283 287 286 287 286 288 288 287 289 289 286 282 287 289 294 294 294 296 297 288 282 285 289 291 289 291 292 291 288 284 283 285 297 297 297 297 297 297 298 298
289 283 290 293 291 286 284 284 284 289 287 289 288 289 287 285 288 285 287 292 293 293 301 300 293 286 283 286 291 288 290 292 291 283 284 285 288 294 296 297 299 298 298 299 298
290 284 290 283 285 287 287 285 283 283 288 289 286 287 286 282 283 283 288 289 293 296 299 296 288 291 292 293 293 291 291 290 288 289 286 288 289 294 296 297 299 300 300 300 300
284 287 291 288 289 287 287 283 284 285 286 284 284 287 287 283 284 282 285 286 286 292 292 296 287 288 288 292 292 289 291 291 290 290 290 291 290 297 299 298 298 299 299 299 300
294 294 292 289 287 285 285 285 285 288 287 288 287 285 284 286 289 290 289 290 290 288 288 290 287 285 283 289 288 283 288 290 292 293 292 289 293 298 297 298 298 300 300 300 300

GFSSW_sfc_thetae_063.txt.gz
Theta_e
315 314 314 315 315 315 315 314 314 313 313 313 313 313 313 315 314 311 305 309 314 322 318 309 306 306 305 303 303 301 297 293 295 294 298 301 303 309 314 312 314 316 315 319 324
313 313 313 313 314 314 315 314 314 314 313 313 313 314 314 314 309 305 315 320 322 324 306 304 302 304 302 302 302 300 296 296 299 299 299 301 301 303 308 309 311 312 316 322 323
312 312 312 312 312 313 314 313 313 312 313 314 314 314 314 313 302 300 325 325 324 324 309 308 307 306 301 301 300 298 296 298 299 301 301 299 304 309 308 306 310 310 313 318 320
312 312 312 312 312 312 313 312 312 311 312 312 313 313 313 311 288 307 327 326 326 318 306 305 305 301 299 298 300 296 299 299 300 300 301 299 307 308 309 310 316 317 317 318 316
311 311 312 312 312 312 312 312 312 310 311 312 313 313 308 299 298 310 320 326 322 309 304 302 302 300 297 297 297 296 299 299 301 301 302 307 306 307 309 315 320 319 318 317 316
312 312 311 311 311 311 312 312 311 311 310 311 312 311 304 291 304 310 309 312 309 305 304 303 302 303 300 298 298 301 299 301 302 302 304 304 304 306 309 318 317 316 315 315 316
311 312 312 311 310 310 311 311 311 310 311 310 311 308 299 294 306 307 308 309 309 305 303 305 305 302 302 299 302 301 298 300 301 301 302 306 302 303 310 317 313 312 313 314 315
310 311 312 312 311 311 311 310 310 310 311 312 311 306 295 306 310 309 308 306 308 307 307 307 307 303 301 303 300 298 297 293 297 302 303 304 296 302 310 314 311 312 312 313 314
311 311 311 311 311 310 310 310 309 310 312 312 306 302 293 309 306 310 309 303 305 306 307 308 305 301 301 296 295 294 291 291 294 300 302 302 298 303 312 313 312 313 312 312 312
310 311 311 311 310 310 309 309 308 310 309 308 306 295 298 294 304 309 310 308 302 304 303 303 300 297 296 294 287 290 291 291 292 298 299 299 300 304 309 312 311 313 313 310 310
309 310 311 311 311 310 307 300 297 296 298 297 298 295 297 307 312 307 309 306 303 301 297 299 296 291 293 296 295 294 292 291 294 297 296 297 297 300 303 309 310 312 312 310 309
309 310 310 310 310 309 303 295 298 297 290 298 298 298 302 305 297 302 307 301 298 293 297 295 293 298 297 296 295 294 293 292 295 297 297 298 297 302 303 305 309 311 311 311 310
309 309 309 309 309 302 299 299 303 302 291 294 298 296 297 300 295 295 303 300 296 293 294 293 295 299 296 294 293 293 292 292 292 295 297 296 296 298 302 305 307 310 311 312 311
308 308 308 308 300 299 295 303 304 303 287 288 293 296 298 299 294 301 302 300 296 293 294 293 298 295 295 293 295 290 295 295 293 292 290 296 288 295 299 300 304 307 311 313 312
307 308 308 308 300 297 299 304 304 302 274 289 294 303 301 294 295 298 303 299 294 294 295 292 294 294 292 294 296 293 297 295 294 292 291 292 290 294 297 299 302 306 309 313 314
306 307 307 303 303 302 303 301 300 285 275 288 295 294 294 296 296 298 297 300 300 295 296 295 299 298 297 297 297 298 296 295 294 293 286 292 291 293 295 299 301 305 307 310 313
306 307 305 306 298 301 302 297 283 277 290 286 288 292 291 291 293 294 292 291 290 288 289 293 294 297 299 295 297 297 294 287 285 285 286 292 289 294 299 302 302 304 306 309 313
306 305 303 305 305 303 298 288 277 284 287 292 290 290 287 292 291 292 290 287 293 292 290 287 285 294 298 296 293 294 293 288 282 283 287 291 289 294 302 304 305 305 306 308 312
304 299 299 302 305 303 291 278 280 284 289 288 289 286 288 291 291 291 290 289 291 294 288 287 287 295 296 298 298 293 290 297 289 289 288 290 294 299 302 302 302 303 306 308 311
296 294 295 303 304 298 286 282 283 291 290 290 284 288 284 286 288 290 289 292 291 296 297 293 287 295 296 298 297 297 298 290 290 283 282 287 289 291 298 300 302 304 304 308 310
294 289 297 303 302 292 281 283 285 289 289 287 286 285 286 285 286 288 289 291 292 295 297 295 292 291 295 293 292 293 292 293 294 290 286 284 288 299 300 302 302 304 305 304 309
293 283 300 303 287 288 284 286 289 287 291 290 290 289 287 287 285 286 287 290 294 293 292 296 292 286 290 295 297 296 294 295 289 287 289 288 290 299 302 302 302 304 304 305 304
289 288 299 298 281 282 287 286 287 286 288 288 287 289 290 287 284 287 288 294 294 293 291 298 290 285 287 292 294 292 294 295 294 291 289 287 289 299 301 302 303 303 305 305 305
289 282 289 292 291 285 284 284 283 289 287 288 288 290 288 286 289 286 286 291 294 294 299 300 294 288 284 288 293 290 292 294 294 288 289 290 292 297 299 302 305 305 306 306 306
289 284 288 281 283 286 286 285 283 283 288 289 286 287 286 283 284 284 288 288 291 296 297 298 289 292 293 293 293 292 292 293 291 292 289 292 292 296 299 301 304 306 304 304 305
285 286 289 286 288 285 286 284 283 285 287 285 285 287 288 284 285 283 286 287 287 291 291 292 290 291 289 293 292 290 293 292 292 293 293 293 293 300 302 301 301 303 304 304 305
293 293 290 286 285 285 285 285 285 288 288 289 288 287 285 287 290 291 291 291 290 288 288 288 290 288 284 289 289 287 290 291 293 294 294 290 296 301 300 301 301 304 305 304 305

GFSSW_sfc_thetae_066.txt.gz
Theta_e
313 313 313 313 314 314 314 314 314 313 313 314 314 314 315 315 314 311 307 311 316 323 321 318 315 312 312 310 311 310 301 298 299 300 302 307 305 310 314 312 316 319 319 322 325
313 313 313 313 313 314 314 313 313 312 312 313 313 315 315 315 311 305 316 320 321 325 315 313 309 309 307 306 308 305 300 301 304 305 304 306 307 308 308 310 313 317 322 323 325
311 312 312 313 313 313 313 313 312 312 312 312 313 314 314 314 303 303 326 327 324 324 317 315 312 308 303 306 305 304 300 304 304 307 306 306 307 310 309 306 311 313 318 321 323
311 312 312 312 312 312 313 313 312 311 311 311 311 313 314 312 291 312 323 326 325 321 313 311 309 304 302 301 306 300 304 305 305 306 306 305 309 308 311 312 318 317 320 322 321
311 311 312 311 311 311 312 312 312 311 311 310 311 312 310 300 298 307 320 324 321 316 310 309 306 305 302 303 304 302 303 306 306 306 306 308 307 308 310 315 320 321 321 321 321
312 312 311 311 311 311 312 312 312 312 311 311 311 311 306 294 304 310 313 314 315 314 310 310 307 308 304 303 302 304 304 304 305 306 307 305 306 308 310 315 319 320 320 320 319
311 311 312 311 312 311 312 312 311 311 311 311 311 309 303 298 305 308 307 308 314 312 310 313 312 306 305 302 306 304 301 303 305 306 305 307 303 305 311 317 317 318 319 320 319
311 312 312 312 312 312 311 311 311 311 312 311 311 308 299 307 309 306 308 306 307 314 310 312 313 308 305 306 304 301 302 297 303 304 305 306 298 305 313 316 315 317 319 319 320
310 311 311 311 311 311 311 310 310 311 312 312 309 306 297 309 304 307 311 304 304 310 311 311 310 307 306 300 298 300 295 297 299 304 304 306 300 309 314 314 313 317 319 319 319
309 310 310 311 310 310 310 310 309 310 311 311 309 299 302 300 302 309 313 311 304 303 305 307 306 302 302 299 291 295 296 298 297 301 303 302 303 307 310 312 314 316 318 319 319
308 309 310 310 310 310 308 306 301 300 300 296 299 300 302 306 310 305 311 309 306 300 299 304 299 296 299 301 300 299 297 297 299 301 299 299 301 305 308 310 313 315 317 318 318
307 308 309 310 310 309 308 301 298 299 291 299 300 300 302 306 299 304 309 302 301 294 299 301 296 300 303 301 299 298 296 297 299 301 300 299 301 306 308 308 311 314 316 318 318
307 307 308 309 308 308 304 301 307 304 293 295 299 298 299 301 296 298 302 300 297 297 295 297 297 302 301 298 296 297 296 297 296 299 301 300 299 302 306 309 311 314 316 318 318
307 308 308 308 304 305 302 307 308 307 289 290 295 298 300 300 293 301 304 299 295 294 298 296 299 298 299 297 298 294 300 298 297 295 291 301 292 300 303 304 307 310 315 316 318
306 307 307 307 303 301 303 309 308 304 278 292 295 305 300 295 296 297 305 299 291 293 298 295 295 295 295 297 300 296 300 299 298 296 295 295 294 298 302 301 304 308 312 317 319
306 306 306 304 307 305 308 308 304 287 277 289 296 296 294 295 295 300 297 300 299 294 295 297 302 298 298 300 301 301 298 298 298 296 289 295 295 296 300 301 304 307 310 314 319
305 305 304 305 299 306 308 302 287 280 290 288 290 294 293 292 294 295 292 290 290 286 287 292 296 300 301 297 300 299 296 289 288 289 287 297 295 298 303 305 307 308 310 314 318
304 304 304 304 308 308 303 291 279 284 286 293 293 293 289 294 294 294 293 288 293 292 289 285 286 296 300 298 296 296 296 291 284 287 290 297 291 298 305 307 309 310 311 312 316
303 302 302 304 308 307 292 282 282 285 290 290 292 288 289 292 292 292 292 291 292 294 289 288 288 298 300 301 300 296 294 300 293 295 292 295 297 302 305 306 307 309 310 312 315
300 299 298 305 309 302 288 282 286 291 293 292 285 289 286 288 289 290 290 294 293 295 298 294 289 296 298 301 302 300 301 292 294 286 285 291 293 294 300 302 304 308 310 312 316
298 292 301 306 306 293 283 285 289 292 292 289 288 288 288 287 288 289 289 292 294 293 296 296 294 293 297 295 295 296 295 297 297 294 289 287 293 302 303 304 305 308 310 311 315
295 285 303 307 288 290 284 288 291 290 293 291 292 291 289 289 287 288 287 290 294 295 293 296 295 291 293 299 301 300 297 297 292 291 294 294 294 303 305 307 307 308 309 312 311
289 290 302 302 284 285 288 288 290 289 290 290 289 292 292 289 285 288 289 294 294 293 293 298 292 287 289 294 298 296 298 298 297 297 292 290 293 304 304 306 308 308 310 311 312
291 284 291 294 293 288 286 286 286 292 291 292 290 292 290 288 290 287 288 290 293 295 298 300 295 290 286 289 294 292 295 297 296 291 292 293 295 299 301 303 305 308 310 312 313
289 285 290 284 286 287 287 287 285 286 291 292 289 289 288 285 287 287 290 290 292 295 294 296 290 294 294 295 295 294 294 296 294 295 292 295 295 299 302 303 306 308 309 310 310
286 286 291 289 289 286 285 285 285 288 288 287 287 289 290 287 288 286 288 289 288 292 292 295 289 291 289 293 294 293 295 296 297 297 296 297 296 304 305 306 306 305 308 308 310
293 294 290 287 287 286 286 287 287 289 291 292 291 289 288 290 293 294 294 294 293 290 289 289 289 288 285 291 290 288 294 295 296 297 297 294 299 303 303 304 306 307 306 308 309

GFSSW_sfc_thetae_069.txt.gz
Theta_e
313 313 313 313 313 313 313 313 313 313 313 313 313 314 314 316 314 312 306 312 315 323 321 318 318 316 314 311 313 313 302 300 302 303 304 309 306 311 313 311 312 317 319 323 328
312 312 312 313 313 314 314 314 313 312 312 312 313 314 314 315 312 307 321 326 323 322 314 314 313 313 309 309 310 306 302 302 307 307 306 308 308 309 308 309 310 314 321 325 326
311 311 312 312 312 312 313 313 313 312 312 312 312 313 313 313 305 309 322 327 328 322 315 316 316 312 307 308 307 307 301 306 308 308 309 308 308 310 308 306 310 312 316 322 324
311 311 312 312 312 312 313 313 313 312 312 312 312 312 313 312 294 309 322 326 323 319 317 314 313 308 305 303 307 302 306 307 307 308 307 306 309 308 309 310 314 317 319 321 324
311 311 311 311 312 312 313 313 313 313 312 312 312 312 310 305 304 311 320 323 322 316 314 310 309 308 304 305 306 304 305 307 308 307 308 308 307 307 308 312 315 319 322 322 323
312 312 311 311 312 312 313 312 312 312 312 312 312 311 306 299 314 310 309 307 311 316 314 312 310 311 307 305 305 307 306 306 307 307 307 305 306 308 309 313 314 317 321 322 323
310 312 311 311 311 311 311 312 311 312 312 312 312 310 303 302 314 313 309 307 305 308 311 314 313 309 309 305 308 307 302 304 306 306 305 307 303 305 310 312 313 316 320 322 323
309 310 311 311 311 311 311 311 311 311 312 312 312 311 300 311 314 311 311 308 309 307 307 313 315 311 308 309 305 302 302 297 305 306 307 306 299 306 311 312 313 317 318 321 322
309 309 311 311 311 311 310 310 310 312 312 313 312 308 299 311 306 308 310 305 308 309 307 310 310 307 308 302 299 302 296 299 301 307 305 304 301 308 313 312 312 316 318 320 321
308 309 309 310 310 309 309 309 311 311 311 313 311 303 305 301 307 307 314 312 308 304 302 305 305 302 302 300 292 296 297 300 300 305 304 302 303 307 311 312 313 314 318 320 320
307 307 308 309 310 309 308 310 304 305 304 298 300 302 302 306 311 308 310 309 308 303 295 300 297 296 299 300 301 301 300 299 303 306 303 302 302 306 309 310 311 314 316 319 321
307 307 307 309 309 308 309 303 301 303 294 301 301 301 303 304 298 303 311 304 301 296 298 295 294 299 301 302 301 300 298 299 302 304 302 301 301 304 307 309 311 313 315 317 321
306 307 307 308 307 307 306 304 310 308 296 297 301 300 302 303 298 299 307 305 299 295 297 292 297 300 300 300 299 300 299 299 299 302 303 301 299 302 307 309 310 312 314 317 320
306 306 308 307 302 306 303 308 311 310 291 294 297 301 303 302 296 303 306 304 297 293 295 297 300 299 298 298 301 296 302 301 299 298 294 302 292 301 305 306 308 310 313 314 318
306 306 307 305 303 301 305 310 311 305 280 294 298 307 303 298 298 299 305 303 295 293 294 294 297 296 296 298 302 299 303 301 300 298 298 297 294 299 304 302 305 308 311 315 318
305 305 305 303 305 305 309 311 307 290 280 291 297 297 298 299 298 300 299 302 301 295 295 293 300 299 298 300 302 303 301 300 300 298 291 296 296 297 301 303 304 308 310 315 318
304 304 303 304 300 310 310 302 289 282 291 289 292 296 295 294 296 296 293 292 291 286 288 293 294 299 301 295 300 299 297 290 289 289 288 299 296 299 304 306 306 308 310 314 318
304 304 303 304 304 307 305 294 281 286 288 293 293 294 290 293 296 296 294 289 293 291 289 287 285 295 300 298 295 298 297 292 286 287 292 299 293 299 307 308 310 310 312 313 316
303 301 301 303 307 307 296 285 284 287 290 290 292 288 289 293 294 295 294 292 293 293 286 288 286 297 300 300 299 296 294 300 294 296 294 296 300 304 307 306 308 308 311 313 316
299 297 298 307 308 302 289 284 288 292 293 292 286 289 287 290 291 293 292 294 292 296 297 292 287 296 298 300 301 299 302 292 294 287 286 293 296 297 301 303 306 308 310 313 316
297 291 300 307 306 293 284 286 290 293 293 290 289 289 290 290 291 290 292 294 294 293 296 295 292 292 297 295 294 294 295 297 297 295 289 288 294 305 304 305 306 309 310 312 316
295 286 304 306 289 291 285 289 293 291 294 292 292 291 290 291 290 289 290 291 294 293 291 295 292 288 293 300 301 299 298 298 293 291 295 295 295 305 307 308 308 308 310 312 313
289 291 303 302 284 286 289 289 291 290 291 291 290 292 293 290 287 291 292 296 295 292 291 293 291 285 288 295 299 296 299 299 299 298 292 291 294 307 306 305 308 309 310 312 313
291 285 291 296 294 289 287 288 287 293 291 292 292 293 291 290 293 289 290 293 294 292 296 296 293 290 287 291 295 294 297 299 298 293 293 294 297 302 303 303 305 308 310 312 313
290 287 291 285 288 289 290 289 286 287 292 292 290 291 289 286 288 288 291 293 294 294 294 294 289 293 294 296 296 295 295 297 295 296 293 295 296 300 302 303 305 307 309 310 311
286 287 292 289 291 288 288 287 286 288 290 289 289 290 291 288 289 287 290 291 290 293 291 293 288 290 291 295 295 293 295 295 296 297 297 297 296 303 305 306 306 306 308 308 310
295 296 292 288 288 287 287 288 287 290 291 293 292 290 289 291 295 297 297 296 294 292 290 289 288 287 286 291 291 288 294 295 296 298 299 294 299 304 303 304 306 307 309 308 309

GFSSW_sfc_thetae_072.txt.gz
Theta_e
312 312 312 313 313 313 313 313 313 312 312 313 313 314 314 314 312 311 306 312 313 322 318 313 316 316 316 310 311 311 300 298 299 301 303 309 307 310 312 309 311 312 314 320 330
311 311 312 312 312 313 312 312 313 312 312 313 313 314 314 314 308 307 318 327 327 321 309 307 310 312 309 308 308 304 300 300 304 305 305 307 307 308 308 308 308 311 319 325 326
312 311 312 312 312 312 313 313 313 313 313 313 313 314 313 312 305 309 321 327 327 325 315 307 310 311 306 307 306 305 300 304 305 307 308 306 306 310 307 305 310 310 317 321 324
310 311 311 311 311 312 313 313 313 312 312 312 313 313 314 308 296 309 322 327 324 321 315 308 306 305 304 302 306 301 304 305 306 307 307 305 308 306 307 309 313 313 317 319 321
310 311 311 312 312 312 312 312 312 312 312 312 312 313 308 301 303 314 324 324 318 317 311 309 306 306 302 304 305 302 303 305 306 307 307 307 305 305 306 310 312 313 320 320 321
311 310 311 311 311 311 312 312 312 312 312 312 312 312 305 294 310 314 311 308 306 309 314 311 308 309 305 305 303 305 304 304 306 306 307 304 305 305 307 311 310 311 316 320 321
310 310 310 310 310 310 311 311 311 311 312 312 312 310 302 298 309 310 311 309 308 305 303 314 312 307 307 303 307 305 301 303 304 305 304 306 301 302 307 310 309 310 314 319 321
308 309 310 310 311 311 310 310 310 311 312 312 312 310 299 310 311 310 312 310 312 309 306 306 309 308 307 308 305 301 301 296 302 304 305 304 297 304 309 309 308 311 314 318 321
307 308 309 310 310 309 309 309 308 310 312 313 310 307 300 313 307 309 310 305 308 309 307 307 305 303 305 300 297 299 293 295 298 304 304 304 299 305 310 310 309 311 314 317 319
307 307 309 309 309 308 308 307 309 311 311 312 311 302 305 302 307 309 312 312 307 307 304 301 299 298 299 297 291 293 294 296 297 303 304 302 301 305 309 310 310 310 312 316 319
306 306 308 308 308 308 306 305 303 302 307 301 300 301 302 308 306 304 309 308 308 304 297 298 294 292 296 299 299 298 297 296 300 305 303 302 301 303 307 308 309 310 312 315 319
307 307 307 307 308 308 304 302 302 302 294 301 301 301 303 304 298 301 307 302 302 297 300 296 290 297 298 300 298 297 296 296 301 304 303 301 300 304 305 307 309 310 312 314 319
306 306 306 307 307 304 305 304 308 308 295 297 302 300 302 304 299 299 301 302 299 297 297 294 296 297 294 295 296 297 296 297 297 301 303 300 298 301 305 307 308 311 312 314 318
306 306 307 307 301 304 302 308 310 309 289 295 298 302 304 303 297 303 303 301 299 295 296 295 299 295 294 294 296 293 300 300 299 297 292 302 290 299 303 304 306 308 310 312 315
305 305 306 305 299 297 303 309 310 304 280 296 298 308 304 299 300 299 304 301 296 295 296 293 295 295 293 295 298 295 302 300 299 297 297 296 293 297 302 302 305 308 310 312 314
304 304 305 301 302 303 307 308 305 287 280 292 299 298 298 300 300 301 299 303 302 296 297 294 299 296 296 299 299 301 298 298 299 297 289 294 294 295 299 302 305 308 309 312 314
304 304 303 302 296 304 306 301 287 281 292 289 291 295 295 293 294 297 294 292 291 287 287 292 292 297 298 293 298 297 294 287 287 287 287 296 294 297 303 305 306 306 309 312 316
304 304 303 301 303 306 302 291 281 287 289 293 293 292 290 292 292 296 294 290 294 293 288 285 285 293 298 295 293 294 294 288 282 285 289 296 291 297 306 308 309 309 311 313 315
303 300 300 303 305 304 293 281 283 288 291 290 291 288 289 291 293 293 294 293 294 294 286 287 287 297 298 299 297 293 290 297 292 294 291 295 298 304 306 305 307 307 309 311 313
297 297 296 306 306 300 287 283 288 293 293 292 286 289 285 289 291 292 292 295 294 297 297 291 285 294 297 299 299 296 298 290 293 284 284 293 294 295 301 303 305 306 310 313 315
295 290 298 306 305 292 281 285 289 293 293 289 288 288 288 288 290 290 291 294 295 294 296 293 289 290 294 293 292 293 292 294 295 293 288 288 293 303 303 305 305 308 310 314 317
293 284 301 306 288 288 283 288 292 291 294 292 292 290 289 290 289 289 290 293 296 295 290 294 291 285 288 296 300 298 294 295 290 288 292 293 293 307 308 308 309 308 310 312 316
290 289 300 302 283 285 288 288 290 290 290 290 289 291 291 288 286 290 292 297 296 295 290 291 289 282 285 292 297 294 296 296 296 296 291 289 292 306 307 306 308 309 310 312 313
291 284 290 295 293 288 286 286 287 292 290 292 290 292 290 288 290 289 291 295 296 294 294 294 289 287 283 288 292 292 295 296 296 290 292 293 296 301 303 304 306 309 309 310 312
291 286 290 284 287 288 288 288 286 286 291 292 289 289 288 286 287 288 291 292 294 294 294 292 287 290 291 292 294 294 294 295 294 296 292 295 296 300 301 303 305 307 308 308 309
288 286 290 288 290 288 287 286 286 288 289 288 288 289 289 287 288 286 289 290 290 294 292 292 286 288 286 292 293 291 295 296 296 297 297 297 296 303 305 306 306 307 308 307 309
293 294 290 287 287 286 287 287 287 289 291 292 291 290 289 291 294 295 296 295 295 292 290 289 287 286 282 290 291 288 293 294 295 297 297 293 298 303 303 303 305 306 307 306 308

GFSSW_sfc_thetae_075.txt.gz
Theta_e
312 312 312 313 313 313 313 313 314 313 313 314 314 314 315 315 313 306 302 308 313 321 320 309 307 310 308 305 304 301 295 291 292 295 298 304 304 304 306 302 307 309 309 320 328
312 312 312 312 313 313 313 314 314 313 313 313 313 314 315 314 307 302 312 323 324 321 306 303 301 306 303 302 301 298 292 294 299 300 299 302 298 303 304 303 305 307 322 327 325
310 311 311 311 311 312 313 313 314 312 313 313 314 314 314 312 301 305 322 324 324 325 314 308 303 302 301 303 300 298 294 298 301 303 304 300 299 302 300 298 305 306 316 320 320
309 310 311 312 312 312 313 313 312 311 312 312 312 313 313 307 290 302 321 324 325 322 316 309 302 295 295 298 302 297 300 301 301 304 303 301 301 301 302 303 308 306 310 319 318
310 310 310 310 310 311 312 312 312 311 311 311 312 313 307 297 298 309 325 325 321 315 309 307 301 298 295 298 300 299 300 302 303 303 303 303 300 300 301 304 305 308 316 314 316
310 310 309 309 310 310 311 311 310 311 311 311 312 312 303 291 304 306 305 306 304 301 301 306 305 303 301 300 299 302 302 301 302 302 301 301 301 298 302 305 305 306 314 315 316
309 309 308 308 309 309 310 310 309 310 310 310 312 309 300 296 303 305 305 304 306 304 299 301 301 298 302 299 304 302 298 300 300 301 299 302 297 298 301 304 303 303 307 315 315
307 308 308 309 309 310 309 309 308 309 310 310 312 306 296 308 307 306 305 304 307 308 305 303 301 298 300 303 302 298 298 292 298 300 301 298 293 299 302 300 300 301 303 314 316
308 308 307 308 309 308 308 308 308 309 310 312 306 303 297 312 305 307 307 303 305 306 304 306 301 295 300 295 292 293 288 291 295 301 300 298 295 301 303 303 302 300 304 311 314
307 307 308 308 308 308 307 307 306 308 309 310 308 300 305 301 304 304 305 310 306 303 301 299 294 289 293 291 285 289 290 291 292 298 299 296 296 300 303 303 303 302 303 308 313
306 306 308 308 308 307 304 297 296 297 298 297 300 300 303 305 304 299 302 305 305 301 293 296 287 285 288 294 295 295 294 292 296 300 299 298 297 299 301 300 301 301 303 306 313
307 306 307 308 308 307 301 295 300 298 291 300 300 299 301 301 295 299 301 297 298 293 297 293 286 292 295 297 296 295 293 291 296 300 299 298 299 298 299 299 301 304 303 305 312
307 306 306 307 307 301 297 300 306 304 290 293 298 298 299 302 296 297 299 295 295 292 294 291 295 299 296 292 292 291 290 293 293 298 299 297 295 295 300 302 303 304 306 307 314
306 306 306 306 299 297 295 303 306 305 286 289 295 298 302 302 296 302 302 295 298 293 294 294 298 296 295 292 293 287 295 296 296 294 288 298 287 293 297 300 302 302 304 306 314
306 306 305 305 296 293 298 304 305 301 274 296 296 306 303 297 298 297 301 296 293 294 294 290 294 293 292 293 294 291 298 297 297 293 292 293 289 292 297 297 300 302 302 304 314
305 305 305 300 296 297 301 301 300 284 275 292 297 295 295 297 298 298 296 298 298 294 295 293 296 295 294 297 297 299 295 296 295 293 285 291 290 289 293 297 301 303 304 304 314
304 304 301 301 290 299 300 297 283 277 291 289 292 296 295 293 295 295 291 290 287 284 284 289 291 295 297 292 296 295 292 285 284 284 283 294 291 292 297 301 302 301 302 305 314
304 303 300 299 298 299 297 288 276 285 284 292 293 292 288 291 290 292 289 286 291 289 285 282 281 292 296 293 291 293 291 287 281 281 285 294 287 292 301 304 304 303 304 308 313
302 296 294 297 299 299 290 277 279 283 289 289 290 286 287 290 289 291 290 288 291 290 284 284 285 295 296 298 296 292 288 294 289 290 285 292 293 298 301 302 302 303 304 304 311
295 293 292 298 299 294 284 279 283 289 291 289 284 288 283 285 289 290 291 294 293 296 295 290 283 293 296 298 298 295 297 287 287 281 281 288 291 289 296 298 300 300 301 304 308
294 288 292 298 298 288 279 281 286 290 291 288 286 286 287 286 287 287 290 292 295 293 294 293 288 288 294 292 290 292 290 291 291 289 284 283 289 300 301 302 300 302 304 307 307
291 282 293 300 284 286 280 284 289 288 291 290 289 288 286 287 286 286 288 292 295 294 290 293 290 284 287 295 298 294 293 293 287 286 289 287 288 304 303 304 303 304 305 306 310
287 286 293 296 280 281 285 285 287 286 288 288 287 289 290 286 283 287 291 295 296 293 289 290 288 282 284 289 294 291 294 295 293 292 287 285 289 304 304 303 303 304 304 306 308
286 280 284 286 286 285 282 283 284 290 288 289 288 289 288 286 288 285 289 294 295 294 295 294 287 284 281 286 289 288 292 295 292 288 288 290 294 300 301 301 302 304 304 306 308
285 283 286 274 282 284 286 286 284 284 290 291 287 287 286 283 285 285 288 292 294 295 293 291 283 287 289 290 291 290 290 292 292 292 289 293 295 298 301 302 302 305 306 306 307
284 284 287 285 286 285 285 284 283 286 287 287 286 288 288 283 285 284 288 288 288 292 291 291 283 286 285 290 289 288 292 292 295 294 294 295 295 301 304 304 303 304 304 305 306
291 290 287 284 284 283 284 285 285 288 288 290 290 288 287 289 292 292 292 292 292 290 289 289 285 282 280 288 287 284 291 293 295 297 296 292 297 302 302 302 302 302 304 304 306

GFSSW_sfc_thetae_078.txt.gz
Theta_e
311 312 312 312 312 312 312 312 313 313 313 313 313 313 314 315 313 307 299 307 311 321 321 308 308 308 306 302 301 298 289 286 289 292 295 302 300 303 305 301 306 308 311 317 327
310 310 311 312 312 312 313 313 313 312 312 312 312 313 314 314 306 301 311 318 322 324 305 302 300 301 300 300 301 296 288 291 296 296 296 300 296 299 301 302 302 313 322 325 325
309 309 310 311 311 311 312 313 312 311 311 311 312 313 313 312 299 300 321 321 326 322 309 307 302 299 298 300 299 295 294 297 297 298 300 299 298 303 299 297 302 307 319 322 322
309 309 309 310 310 310 311 311 311 310 310 310 311 312 313 307 285 303 325 326 325 321 315 308 303 293 292 295 300 294 299 298 300 301 300 299 301 300 299 302 306 311 321 321 319
308 308 308 308 309 309 310 310 310 309 309 310 310 311 306 296 296 305 320 319 321 314 309 306 300 295 291 294 296 296 299 301 302 301 301 301 299 299 300 302 303 307 318 317 316
309 309 308 307 307 308 309 310 309 310 309 309 309 310 302 289 302 303 303 304 314 306 303 303 303 301 297 296 295 298 299 300 301 300 301 299 299 298 301 303 302 306 312 316 316
308 309 308 307 307 307 308 309 309 309 308 308 309 307 298 294 302 300 303 302 302 302 300 300 299 295 296 295 301 300 295 298 299 299 298 299 295 296 300 301 300 301 306 312 314
307 308 309 308 308 308 309 308 308 308 308 308 309 306 295 306 304 304 303 302 304 304 304 305 301 296 295 299 299 295 295 290 297 298 299 296 291 299 301 299 298 299 299 311 312
307 308 308 308 308 308 308 307 307 308 308 309 305 301 293 311 305 307 304 301 304 304 303 307 300 294 294 292 289 291 288 289 292 298 297 296 293 299 302 300 298 299 298 307 312
307 307 308 308 307 307 307 306 306 308 308 309 307 299 302 299 303 301 302 305 304 303 299 296 292 287 289 289 284 286 287 288 289 294 298 296 294 299 301 300 299 298 299 307 312
307 306 306 307 307 307 303 297 297 294 297 296 298 299 301 306 304 299 301 299 303 300 291 294 287 284 285 290 293 292 291 289 293 298 297 295 295 298 302 301 299 299 299 307 312
306 305 305 306 306 306 299 294 297 300 290 298 298 298 300 301 295 299 301 293 297 292 294 292 286 291 292 292 291 292 290 289 294 298 297 294 294 298 301 301 301 301 299 304 309
306 305 305 306 306 299 293 295 302 302 289 293 297 296 297 299 294 293 298 294 293 291 292 289 293 296 293 293 292 290 289 289 289 295 297 294 293 295 300 301 300 300 302 304 311
306 306 306 306 295 294 294 299 300 300 282 287 293 297 299 300 293 300 300 294 292 291 293 292 296 295 293 292 293 288 293 293 292 292 286 294 284 293 297 299 300 299 299 302 311
305 304 305 305 294 290 295 299 299 297 271 290 295 303 301 296 297 296 299 295 293 292 293 289 291 291 291 293 295 291 294 293 294 290 290 290 286 291 297 295 298 299 299 303 312
304 304 305 298 293 295 297 298 296 281 273 288 296 294 294 296 297 296 294 298 297 293 293 291 295 294 293 295 297 297 293 293 293 290 282 289 289 289 293 296 299 301 301 303 312
303 304 301 299 290 295 296 293 279 275 287 287 291 294 293 292 293 292 290 290 286 283 283 288 289 293 296 291 295 294 290 283 281 281 280 292 290 291 298 300 300 301 302 304 312
302 302 298 298 295 294 295 287 275 281 282 290 289 292 289 292 292 291 288 285 290 288 284 280 279 290 295 291 290 290 291 284 278 279 283 293 286 292 301 303 303 303 300 308 311
302 292 291 294 296 294 289 278 277 282 287 286 287 286 287 288 288 289 286 285 288 289 283 282 283 292 295 295 294 291 288 294 288 289 284 289 293 298 301 300 301 300 305 309 311
294 291 290 296 295 293 284 279 281 286 288 287 281 286 283 285 286 286 289 293 292 293 292 288 282 291 295 296 297 293 297 287 288 280 280 286 289 290 298 298 299 298 302 309 311
290 286 291 295 294 287 276 278 283 287 288 286 284 283 284 284 285 284 289 292 293 291 293 291 287 286 293 291 290 291 290 291 291 288 284 281 288 300 299 301 300 299 302 307 310
287 280 290 295 283 283 279 282 287 285 289 287 288 286 285 286 284 285 288 291 294 293 288 292 288 282 285 293 297 295 291 292 285 284 288 286 287 304 303 303 302 302 304 303 311
285 284 291 294 278 278 282 283 285 283 284 286 286 288 288 285 281 286 289 294 294 291 288 289 286 280 282 289 294 290 292 293 293 291 287 284 287 303 304 303 304 302 304 306 307
286 278 282 284 284 283 280 280 281 288 286 286 285 288 286 285 287 284 287 293 294 294 295 293 286 282 278 283 288 286 289 290 291 286 286 287 292 296 300 301 303 303 305 306 308
285 277 284 279 281 283 283 282 281 281 287 289 287 286 285 282 283 282 288 290 293 295 292 290 282 285 287 289 289 288 289 290 288 289 287 291 292 297 301 302 303 304 305 306 308
283 282 286 285 285 283 284 282 282 284 286 285 286 288 288 284 285 283 287 287 287 290 289 290 281 284 283 288 290 287 290 290 290 291 290 292 293 300 305 305 303 302 304 306 306
290 289 286 283 282 280 281 282 285 287 288 288 287 287 286 289 291 291 291 291 290 289 288 287 285 281 277 286 285 282 288 289 291 294 294 289 295 301 302 301 301 301 304 305 304